Observation data for Snyder SSW on 01/13/2021      Previous  Date  Next       Current Mesonet Observations  Soil Data  Daily Summary Page  Observations in Plain Language
KWT1 130600Z 25005KT M01/M01 A3023 RMK A01 T10111013  RH  099%=      5-min Rain = 0
KWT1 130601Z 25005KT M01/M01 A3023 RMK A01 T10111013  RH  099%=      5-min Rain = 0
KWT1 130602Z 25004KT M01/M01 A3023 RMK A01 T10111014  RH  099%=      5-min Rain = 0
KWT1 130603Z 24004KT M01/M01 A3023 RMK A01 T10111014  RH  098%=      5-min Rain = 0
KWT1 130604Z 24004KT M01/M01 A3023 RMK A01 T10121014  RH  098%=      5-min Rain = 0
KWT1 130605Z 24004KT M01/M01 A3023 RMK A01 T10121014  RH  098%=      5-min Rain = 0
KWT1 130606Z 23004KT M01/M01 A3023 RMK A01 T10121014  RH  099%=      5-min Rain = 0
KWT1 130607Z 22004KT M01/M01 A3022 RMK A01 T10121014  RH  099%=      5-min Rain = 0
KWT1 130608Z 22003KT M01/M01 A3022 RMK A01 T10121014  RH  099%=      5-min Rain = 0
KWT1 130609Z 22003KT M01/M02 A3022 RMK A01 T10131016  RH  098%=      5-min Rain = 0
KWT1 130610Z 22003KT M02/M02 A3022 RMK A01 T10151018  RH  098%=      5-min Rain = 0
KWT1 130611Z 22003KT M02/M02 A3022 RMK A01 T10171020  RH  098%=      5-min Rain = 0
KWT1 130612Z 22003KT M02/M02 A3022 RMK A01 T10181021  RH  098%=      5-min Rain = 0
KWT1 130613Z 21003KT M02/M02 A3022 RMK A01 T10191022  RH  098%=      5-min Rain = 0
KWT1 130614Z 21003KT M02/M02 A3022 RMK A01 T10191022  RH  098%=      5-min Rain = 0
KWT1 130615Z 21003KT M02/M02 A3022 RMK A01 T10191022  RH  098%=      5-min Rain = 0
KWT1 130616Z 21003KT M02/M02 A3022 RMK A01 T10201022  RH  098%=      5-min Rain = 0
KWT1 130617Z 21003KT M02/M02 A3022 RMK A01 T10201022  RH  098%=      5-min Rain = 0
KWT1 130618Z 22003KT M02/M02 A3022 RMK A01 T10201023  RH  098%=      5-min Rain = 0
KWT1 130619Z 22003KT M02/M02 A3022 RMK A01 T10211023  RH  099%=      5-min Rain = 0
KWT1 130620Z 22003KT M02/M02 A3022 RMK A01 T10221024  RH  099%=      5-min Rain = 0
KWT1 130621Z 22004KT M02/M02 A3022 RMK A01 T10221024  RH  099%=      5-min Rain = 0
KWT1 130622Z 22004KT M02/M02 A3022 RMK A01 T10231024  RH  099%=      5-min Rain = 0
KWT1 130623Z 22004KT M02/M02 A3022 RMK A01 T10231024  RH  099%=      5-min Rain = 0
KWT1 130624Z 22004KT M02/M02 A3022 RMK A01 T10231024  RH  099%=      5-min Rain = 0
KWT1 130625Z 22004KT M02/M02 A3022 RMK A01 T10231024  RH  099%=      5-min Rain = 0
KWT1 130626Z 22004KT M02/M03 A3022 RMK A01 T10241025  RH  100%=      5-min Rain = 0
KWT1 130627Z 21005KT M02/M03 A3021 RMK A01 T10241025  RH  100%=      5-min Rain = 0
KWT1 130628Z 22005KT M03/M03 A3021 RMK A01 T10251025  RH  100%=      5-min Rain = 0
KWT1 130629Z 22005KT M02/M03 A3021 RMK A01 T10241025  RH  100%=      5-min Rain = 0
KWT1 130630Z 22006KT M02/M02 A3021 RMK A01 T10241024  RH  100%=      5-min Rain = 0
KWT1 130631Z 22006KT M02/M02 A3021 RMK A01 T10241024  RH  100%=      5-min Rain = 0
KWT1 130632Z 22006KT M02/M02 A3021 RMK A01 T10231023  RH  100%=      5-min Rain = 0
KWT1 130633Z 22007KT M02/M02 A3021 RMK A01 T10221022  RH  100%=      5-min Rain = 0
KWT1 130634Z 22007KT M02/M02 A3021 RMK A01 T10201020  RH  100%=      5-min Rain = 0
KWT1 130635Z 22006KT M02/M02 A3021 RMK A01 T10191019  RH  100%=      5-min Rain = 0
KWT1 130636Z 22006KT M02/M02 A3021 RMK A01 T10181018  RH  100%=      5-min Rain = 0
KWT1 130637Z 22006KT M02/M02 A3021 RMK A01 T10181018  RH  100%=      5-min Rain = 0
KWT1 130638Z 22006KT M02/M02 A3021 RMK A01 T10181018  RH  100%=      5-min Rain = 0
KWT1 130639Z 22006KT M02/M02 A3021 RMK A01 T10181018  RH  100%=      5-min Rain = 0
KWT1 130640Z 23006KT M02/M02 A3021 RMK A01 T10181018  RH  100%=      5-min Rain = 0
KWT1 130641Z 22006KT M02/M02 A3021 RMK A01 T10171017  RH  100%=      5-min Rain = 0
KWT1 130642Z 22006KT M02/M02 A3021 RMK A01 T10161017  RH  100%=      5-min Rain = 0
KWT1 130643Z 22006KT M02/M02 A3021 RMK A01 T10161016  RH  100%=      5-min Rain = 0
KWT1 130644Z 22006KT M02/M02 A3021 RMK A01 T10161016  RH  100%=      5-min Rain = 0
KWT1 130645Z 22006KT M02/M02 A3021 RMK A01 T10161016  RH  100%=      5-min Rain = 0
KWT1 130646Z 22006KT M02/M02 A3021 RMK A01 T10161016  RH  100%=      5-min Rain = 0
KWT1 130647Z 22006KT M02/M02 A3021 RMK A01 T10161016  RH  100%=      5-min Rain = 0
KWT1 130648Z 22006KT M02/M02 A3021 RMK A01 T10151016  RH  100%=      5-min Rain = 0
KWT1 130649Z 22006KT M02/M02 A3021 RMK A01 T10161016  RH  100%=      5-min Rain = 0
KWT1 130650Z 22006KT M02/M02 A3021 RMK A01 T10151015  RH  100%=      5-min Rain = 0
KWT1 130651Z 22006KT M02/M02 A3021 RMK A01 T10151015  RH  100%=      5-min Rain = 0
KWT1 130652Z 23006KT M01/M02 A3021 RMK A01 T10141015  RH  100%=      5-min Rain = 0
KWT1 130653Z 23006KT M01/M02 A3021 RMK A01 T10141015  RH  100%=      5-min Rain = 0
KWT1 130654Z 23006KT M01/M02 A3021 RMK A01 T10141015  RH  099%=      5-min Rain = 0
KWT1 130655Z 23006KT M01/M02 A3021 RMK A01 T10141015  RH  099%=      5-min Rain = 0
KWT1 130656Z 23006KT M01/M02 A3021 RMK A01 T10141016  RH  099%=      5-min Rain = 0
KWT1 130657Z 23006KT M01/M02 A3021 RMK A01 T10141016  RH  099%=      5-min Rain = 0
KWT1 130658Z 23006KT M01/M02 A3021 RMK A01 T10141016  RH  099%=      5-min Rain = 0
KWT1 130659Z 23006KT M02/M02 A3021 RMK A01 T10151017  RH  099%=      5-min Rain = 0
KWT1 130700Z 23006KT M02/M02 A3021 RMK A01 T10151018  RH  098%=      5-min Rain = 0
KWT1 130701Z 23007KT M02/M02 A3021 RMK A01 T10151018  RH  098%=      5-min Rain = 0
KWT1 130702Z 23007KT M02/M02 A3021 RMK A01 T10151017  RH  098%=      5-min Rain = 0
KWT1 130703Z 23007KT M02/M02 A3021 RMK A01 T10161018  RH  098%=      5-min Rain = 0
KWT1 130704Z 23007KT M02/M02 A3021 RMK A01 T10161018  RH  098%=      5-min Rain = 0
KWT1 130705Z 23007KT M02/M02 A3021 RMK A01 T10161018  RH  098%=      5-min Rain = 0
KWT1 130706Z 23007KT M02/M02 A3021 RMK A01 T10161018  RH  098%=      5-min Rain = 0
KWT1 130707Z 23007KT M02/M02 A3021 RMK A01 T10161018  RH  098%=      5-min Rain = 0
KWT1 130708Z 23007KT M02/M02 A3021 RMK A01 T10161018  RH  098%=      5-min Rain = 0
KWT1 130709Z 23007KT M02/M02 A3021 RMK A01 T10161018  RH  098%=      5-min Rain = 0
KWT1 130710Z 23008KT M02/M02 A3021 RMK A01 T10161018  RH  098%=      5-min Rain = 0
KWT1 130711Z 23008KT M02/M02 A3021 RMK A01 T10161019  RH  098%=      5-min Rain = 0
KWT1 130712Z 23008KT M02/M02 A3021 RMK A01 T10161018  RH  099%=      5-min Rain = 0
KWT1 130713Z 23008KT M02/M02 A302 RMK A01 T10161017  RH  099%=      5-min Rain = 0
KWT1 130714Z 23008KT M02/M02 A3021 RMK A01 T10151017  RH  099%=      5-min Rain = 0
KWT1 130715Z 23008KT M02/M02 A302 RMK A01 T10151016  RH  099%=      5-min Rain = 0
KWT1 130716Z 23008KT M02/M02 A302 RMK A01 T10151016  RH  099%=      5-min Rain = 0
KWT1 130717Z 23008KT M01/M02 A302 RMK A01 T10141015  RH  099%=      5-min Rain = 0
KWT1 130718Z 23008KT M01/M02 A302 RMK A01 T10141015  RH  099%=      5-min Rain = 0
KWT1 130719Z 23008KT M01/M02 A302 RMK A01 T10141015  RH  099%=      5-min Rain = 0
KWT1 130720Z 23008KT M01/M02 A302 RMK A01 T10141015  RH  099%=      5-min Rain = 0
KWT1 130721Z 23008KT M01/M02 A302 RMK A01 T10131015  RH  099%=      5-min Rain = 0
KWT1 130722Z 23008KT M01/M02 A302 RMK A01 T10141016  RH  099%=      5-min Rain = 0
KWT1 130723Z 23008KT M01/M02 A302 RMK A01 T10131015  RH  099%=      5-min Rain = 0
KWT1 130724Z 23008KT M01/M02 A302 RMK A01 T10141016  RH  099%=      5-min Rain = 0
KWT1 130725Z 23009KT M01/M02 A302 RMK A01 T10131015  RH  099%=      5-min Rain = 0
KWT1 130726Z 23008KT M01/M02 A302 RMK A01 T10141016  RH  099%=      5-min Rain = 0
KWT1 130727Z 23008KT M01/M02 A302 RMK A01 T10141016  RH  098%=      5-min Rain = 0
KWT1 130728Z 23008KT M01/M02 A302 RMK A01 T10141017  RH  098%=      5-min Rain = 0
KWT1 130729Z 23009KT M02/M02 A302 RMK A01 T10161018  RH  098%=      5-min Rain = 0
KWT1 130730Z 23009KT M02/M02 A302 RMK A01 T10161019  RH  098%=      5-min Rain = 0
KWT1 130731Z 23008KT M02/M02 A302 RMK A01 T10171020  RH  098%=      5-min Rain = 0
KWT1 130732Z 24008KT M02/M02 A302 RMK A01 T10181021  RH  098%=      5-min Rain = 0
KWT1 130733Z 24009KT M02/M02 A302 RMK A01 T10181021  RH  098%=      5-min Rain = 0
KWT1 130734Z 24009KT M02/M02 A302 RMK A01 T10181021  RH  098%=      5-min Rain = 0
KWT1 130735Z 24009KT M02/M02 A302 RMK A01 T10181021  RH  098%=      5-min Rain = 0
KWT1 130736Z 24008KT M02/M02 A302 RMK A01 T10191021  RH  099%=      5-min Rain = 0
KWT1 130737Z 24008KT M02/M02 A302 RMK A01 T10191020  RH  099%=      5-min Rain = 0
KWT1 130738Z 24008KT M02/M02 A302 RMK A01 T10191021  RH  099%=      5-min Rain = 0
KWT1 130739Z 24008KT M02/M02 A302 RMK A01 T10191021  RH  099%=      5-min Rain = 0
KWT1 130740Z 24008KT M02/M02 A302 RMK A01 T10191020  RH  099%=      5-min Rain = 0
KWT1 130741Z 24008KT M02/M02 A302 RMK A01 T10191020  RH  099%=      5-min Rain = 0
KWT1 130742Z 24008KT M02/M02 A302 RMK A01 T10191020  RH  099%=      5-min Rain = 0
KWT1 130743Z 24008KT M02/M02 A302 RMK A01 T10191020  RH  099%=      5-min Rain = 0
KWT1 130744Z 23008KT M02/M02 A302 RMK A01 T10191020  RH  099%=      5-min Rain = 0
KWT1 130745Z 23008KT M02/M02 A302 RMK A01 T10191020  RH  099%=      5-min Rain = 0
KWT1 130746Z 23008KT M02/M02 A302 RMK A01 T10191020  RH  099%=      5-min Rain = 0
KWT1 130747Z 23008KT M02/M02 A302 RMK A01 T10191020  RH  099%=      5-min Rain = 0
KWT1 130748Z 23008KT M02/M02 A302 RMK A01 T10191020  RH  099%=      5-min Rain = 0
KWT1 130749Z 23008KT M02/M02 A302 RMK A01 T10191020  RH  099%=      5-min Rain = 0
KWT1 130750Z 23008KT M02/M02 A302 RMK A01 T10191020  RH  099%=      5-min Rain = 0
KWT1 130751Z 23007KT M02/M02 A302 RMK A01 T10191020  RH  099%=      5-min Rain = 0
KWT1 130752Z 24007KT M02/M02 A302 RMK A01 T10191020  RH  099%=      5-min Rain = 0
KWT1 130753Z 23008KT M02/M02 A302 RMK A01 T10191020  RH  099%=      5-min Rain = 0
KWT1 130754Z 24008KT M02/M02 A302 RMK A01 T10191021  RH  099%=      5-min Rain = 0
KWT1 130755Z 24008KT M02/M02 A302 RMK A01 T10201021  RH  099%=      5-min Rain = 0
KWT1 130756Z 24008KT M02/M02 A302 RMK A01 T10191021  RH  099%=      5-min Rain = 0
KWT1 130757Z 24008KT M02/M02 A302 RMK A01 T10201021  RH  099%=      5-min Rain = 0
KWT1 130758Z 24008KT M02/M02 A302 RMK A01 T10201021  RH  099%=      5-min Rain = 0
KWT1 130759Z 24008KT M02/M02 A302 RMK A01 T10201021  RH  099%=      5-min Rain = 0
KWT1 130800Z 25008KT M02/M02 A302 RMK A01 T10201021  RH  099%=      5-min Rain = 0
KWT1 130801Z 25008KT M02/M02 A302 RMK A01 T10191020  RH  099%=      5-min Rain = 0
KWT1 130802Z 25009KT M02/M02 A302 RMK A01 T10171018  RH  100%=      5-min Rain = 0
KWT1 130803Z 25009KT M02/M02 A302 RMK A01 T10161017  RH  100%=      5-min Rain = 0
KWT1 130804Z 25009KT M02/M02 A302 RMK A01 T10151015  RH  100%=      5-min Rain = 0
KWT1 130805Z 25009KT M01/M02 A302 RMK A01 T10141015  RH  100%=      5-min Rain = 0
KWT1 130806Z 25009KT M01/M01 A302 RMK A01 T10141014  RH  099%=      5-min Rain = 0
KWT1 130807Z 25009KT M01/M02 A302 RMK A01 T10131015  RH  099%=      5-min Rain = 0
KWT1 130808Z 25009KT M01/M02 A302 RMK A01 T10131015  RH  099%=      5-min Rain = 0
KWT1 130809Z 25009KT M01/M02 A302 RMK A01 T10131015  RH  098%=      5-min Rain = 0
KWT1 130810Z 25009KT M01/M02 A302 RMK A01 T10131015  RH  098%=      5-min Rain = 0
KWT1 130811Z 25009KT M01/M02 A302 RMK A01 T10121015  RH  098%=      5-min Rain = 0
KWT1 130812Z 25009KT M01/M02 A302 RMK A01 T10121016  RH  098%=      5-min Rain = 0
KWT1 130813Z 25009KT M01/M02 A302 RMK A01 T10121016  RH  097%=      5-min Rain = 0
KWT1 130814Z 25009KT M01/M02 A302 RMK A01 T10121016  RH  097%=      5-min Rain = 0
KWT1 130815Z 25009KT M01/M02 A302 RMK A01 T10121016  RH  097%=      5-min Rain = 0
KWT1 130816Z 25009KT M01/M02 A302 RMK A01 T10121016  RH  097%=      5-min Rain = 0
KWT1 130817Z 25009KT M01/M02 A302 RMK A01 T10111016  RH  097%=      5-min Rain = 0
KWT1 130818Z 25009KT M01/M02 A302 RMK A01 T10111017  RH  096%=      5-min Rain = 0
KWT1 130819Z 25009KT M01/M02 A302 RMK A01 T10121017  RH  096%=      5-min Rain = 0
KWT1 130820Z 25009KT M01/M02 A302 RMK A01 T10111017  RH  096%=      5-min Rain = 0
KWT1 130821Z 25009KT M01/M02 A302 RMK A01 T10111016  RH  096%=      5-min Rain = 0
KWT1 130822Z 25009KT M01/M02 A302 RMK A01 T10101016  RH  096%=      5-min Rain = 0
KWT1 130823Z 25009KT M01/M02 A302 RMK A01 T10101016  RH  095%=      5-min Rain = 0
KWT1 130824Z 25009KT M01/M02 A302 RMK A01 T10101016  RH  095%=      5-min Rain = 0
KWT1 130825Z 25009KT M01/M02 A302 RMK A01 T10101017  RH  095%=      5-min Rain = 0
KWT1 130826Z 25009KT M01/M02 A302 RMK A01 T10091017  RH  095%=      5-min Rain = 0
KWT1 130827Z 25008KT M01/M02 A302 RMK A01 T10091017  RH  094%=      5-min Rain = 0
KWT1 130828Z 25008KT M01/M02 A302 RMK A01 T10091017  RH  094%=      5-min Rain = 0
KWT1 130829Z 25008KT M01/M02 A302 RMK A01 T10101018  RH  094%=      5-min Rain = 0
KWT1 130830Z 25008KT M01/M02 A3021 RMK A01 T10101018  RH  094%=      5-min Rain = 0
KWT1 130831Z 26008KT M01/M02 A3021 RMK A01 T10101018  RH  094%=      5-min Rain = 0
KWT1 130832Z 26009KT M01/M02 A3021 RMK A01 T10101018  RH  094%=      5-min Rain = 0
KWT1 130833Z 26008KT M01/M02 A3021 RMK A01 T10101018  RH  094%=      5-min Rain = 0
KWT1 130834Z 26008KT M01/M02 A3021 RMK A01 T10101019  RH  094%=      5-min Rain = 0
KWT1 130835Z 26008KT M01/M02 A3021 RMK A01 T10101019  RH  094%=      5-min Rain = 0
KWT1 130836Z 26008KT M01/M02 A3021 RMK A01 T10101019  RH  094%=      5-min Rain = 0
KWT1 130837Z 26009KT M01/M02 A3021 RMK A01 T10111020  RH  094%=      5-min Rain = 0
KWT1 130838Z 26009KT M01/M02 A3021 RMK A01 T10111019  RH  094%=      5-min Rain = 0
KWT1 130839Z 26010KT M01/M02 A3021 RMK A01 T10111019  RH  094%=      5-min Rain = 0
KWT1 130840Z 26010KT M01/M02 A3021 RMK A01 T10111019  RH  094%=      5-min Rain = 0
KWT1 130841Z 26010KT M01/M02 A3021 RMK A01 T10101019  RH  094%=      5-min Rain = 0
KWT1 130842Z 26011KT M01/M02 A3021 RMK A01 T10101019  RH  094%=      5-min Rain = 0
KWT1 130843Z 26010KT M01/M02 A3021 RMK A01 T10101019  RH  094%=      5-min Rain = 0
KWT1 130844Z 26010KT M01/M02 A3021 RMK A01 T10101019  RH  093%=      5-min Rain = 0
KWT1 130845Z 26011KT M01/M02 A3021 RMK A01 T10101019  RH  093%=      5-min Rain = 0
KWT1 130846Z 26011KT M01/M02 A3021 RMK A01 T10081018  RH  093%=      5-min Rain = 0
KWT1 130847Z 26011KT M01/M02 A3021 RMK A01 T10081018  RH  093%=      5-min Rain = 0
KWT1 130848Z 26011KT M01/M02 A3021 RMK A01 T10071018  RH  093%=      5-min Rain = 0
KWT1 130849Z 26011KT M01/M02 A3021 RMK A01 T10061018  RH  092%=      5-min Rain = 0
KWT1 130850Z 26010KT M01/M02 A3021 RMK A01 T10051018  RH  092%=      5-min Rain = 0
KWT1 130851Z 26010KT M01/M02 A3021 RMK A01 T10051018  RH  091%=      5-min Rain = 0
KWT1 130852Z 26010KT M01/M02 A3021 RMK A01 T10061019  RH  091%=      5-min Rain = 0
KWT1 130853Z 26011KT M01/M02 A3021 RMK A01 T10061019  RH  091%=      5-min Rain = 0
KWT1 130854Z 26011KT M01/M02 A3021 RMK A01 T10051019  RH  090%=      5-min Rain = 0
KWT1 130855Z 26010KT M00/M02 A3021 RMK A01 T10041019  RH  090%=      5-min Rain = 0
KWT1 130856Z 26010KT M01/M02 A3021 RMK A01 T10051019  RH  090%=      5-min Rain = 0
KWT1 130857Z 25010KT M01/M02 A3021 RMK A01 T10051019  RH  090%=      5-min Rain = 0
KWT1 130858Z 25011KT M01/M02 A3021 RMK A01 T10051019  RH  090%=      5-min Rain = 0
KWT1 130859Z 25010KT M01/M02 A3021 RMK A01 T10051019  RH  090%=      5-min Rain = 0
KWT1 130900Z 25010KT M01/M02 A3021 RMK A01 T10051020  RH  090%=      5-min Rain = 0
KWT1 130901Z 25010KT M01/M02 A3021 RMK A01 T10051020  RH  089%=      5-min Rain = 0
KWT1 130902Z 25010KT M01/M02 A3021 RMK A01 T10051021  RH  089%=      5-min Rain = 0
KWT1 130903Z 25011KT M01/M02 A3021 RMK A01 T10061021  RH  089%=      5-min Rain = 0
KWT1 130904Z 25011KT M01/M02 A3021 RMK A01 T10061021  RH  090%=      5-min Rain = 0
KWT1 130905Z 25010KT M01/M02 A3021 RMK A01 T10061021  RH  090%=      5-min Rain = 0
KWT1 130906Z 25010KT M01/M02 A3021 RMK A01 T10061021  RH  090%=      5-min Rain = 0
KWT1 130907Z 25011KT M01/M02 A3021 RMK A01 T10061021  RH  090%=      5-min Rain = 0
KWT1 130908Z 25010KT M01/M02 A3021 RMK A01 T10061021  RH  090%=      5-min Rain = 0
KWT1 130909Z 25010KT M01/M02 A3021 RMK A01 T10061021  RH  090%=      5-min Rain = 0
KWT1 130910Z 25010KT M01/M02 A3021 RMK A01 T10061021  RH  089%=      5-min Rain = 0
KWT1 130911Z 25010KT M01/M02 A3021 RMK A01 T10061021  RH  089%=      5-min Rain = 0
KWT1 130912Z 25010KT M01/M02 A3021 RMK A01 T10051021  RH  089%=      5-min Rain = 0
KWT1 130913Z 25010KT M01/M02 A3021 RMK A01 T10061021  RH  089%=      5-min Rain = 0
KWT1 130914Z 25010KT M01/M02 A3021 RMK A01 T10061021  RH  089%=      5-min Rain = 0
KWT1 130915Z 25010KT M01/M02 A3021 RMK A01 T10061022  RH  089%=      5-min Rain = 0
KWT1 130916Z 25010KT M01/M02 A3021 RMK A01 T10061022  RH  089%=      5-min Rain = 0
KWT1 130917Z 25011KT M01/M02 A302 RMK A01 T10071023  RH  089%=      5-min Rain = 0
KWT1 130918Z 25009KT M01/M02 A302 RMK A01 T10071023  RH  089%=      5-min Rain = 0
KWT1 130919Z 25009KT M01/M02 A302 RMK A01 T10071023  RH  089%=      5-min Rain = 0
KWT1 130920Z 26010KT M01/M02 A3021 RMK A01 T10081023  RH  089%=      5-min Rain = 0
KWT1 130921Z 25010KT M01/M02 A3021 RMK A01 T10081023  RH  089%=      5-min Rain = 0
KWT1 130922Z 25010KT M01/M02 A3021 RMK A01 T10081023  RH  089%=      5-min Rain = 0
KWT1 130923Z 25010KT M01/M02 A302 RMK A01 T10081023  RH  089%=      5-min Rain = 0
KWT1 130924Z 25010KT M01/M02 A302 RMK A01 T10081023  RH  089%=      5-min Rain = 0
KWT1 130925Z 25010KT M01/M02 A302 RMK A01 T10081023  RH  089%=      5-min Rain = 0
KWT1 130926Z 25011KT M01/M02 A302 RMK A01 T10081024  RH  089%=      5-min Rain = 0
KWT1 130927Z 25011KT M01/M02 A302 RMK A01 T10071023  RH  089%=      5-min Rain = 0
KWT1 130928Z 25010KT M01/M02 A302 RMK A01 T10081024  RH  089%=      5-min Rain = 0
KWT1 130929Z 25010KT M01/M02 A302 RMK A01 T10081024  RH  089%=      5-min Rain = 0
KWT1 130930Z 25010KT M01/M02 A302 RMK A01 T10081024  RH  088%=      5-min Rain = 0
KWT1 130931Z 25010KT M01/M02 A302 RMK A01 T10071024  RH  088%=      5-min Rain = 0
KWT1 130932Z 25010KT M01/M03 A302 RMK A01 T10081025  RH  088%=      5-min Rain = 0
KWT1 130933Z 25010KT M01/M03 A302 RMK A01 T10081025  RH  089%=      5-min Rain = 0
KWT1 130934Z 25010KT M01/M03 A302 RMK A01 T10081025  RH  089%=      5-min Rain = 0
KWT1 130935Z 25011KT M01/M03 A302 RMK A01 T10081025  RH  089%=      5-min Rain = 0
KWT1 130936Z 25011KT M01/M03 A302 RMK A01 T10081025  RH  089%=      5-min Rain = 0
KWT1 130937Z 25011KT M01/M03 A302 RMK A01 T10081025  RH  088%=      5-min Rain = 0
KWT1 130938Z 25011KT M01/M03 A302 RMK A01 T10081025  RH  088%=      5-min Rain = 0
KWT1 130939Z 25011KT M01/M03 A302 RMK A01 T10071025  RH  088%=      5-min Rain = 0
KWT1 130940Z 25010KT M01/M03 A302 RMK A01 T10071025  RH  088%=      5-min Rain = 0
KWT1 130941Z 25010KT M01/M03 A302 RMK A01 T10071025  RH  088%=      5-min Rain = 0
KWT1 130942Z 25011KT M01/M03 A302 RMK A01 T10071025  RH  087%=      5-min Rain = 0
KWT1 130943Z 25011KT M01/M03 A302 RMK A01 T10071025  RH  087%=      5-min Rain = 0
KWT1 130944Z 25011KT M01/M03 A302 RMK A01 T10071025  RH  087%=      5-min Rain = 0
KWT1 130945Z 25012KT M01/M03 A302 RMK A01 T10071025  RH  087%=      5-min Rain = 0
KWT1 130946Z 25011KT M01/M03 A302 RMK A01 T10071025  RH  087%=      5-min Rain = 0
KWT1 130947Z 25011KT M01/M03 A302 RMK A01 T10061025  RH  087%=      5-min Rain = 0
KWT1 130948Z 25010KT M01/M03 A302 RMK A01 T10061026  RH  087%=      5-min Rain = 0
KWT1 130949Z 24010KT M01/M03 A302 RMK A01 T10061026  RH  087%=      5-min Rain = 0
KWT1 130950Z 25010KT M01/M03 A3019 RMK A01 T10071026  RH  087%=      5-min Rain = 0
KWT1 130951Z 25011KT M01/M03 A3019 RMK A01 T10061026  RH  087%=      5-min Rain = 0
KWT1 130952Z 25011KT M01/M03 A3019 RMK A01 T10071026  RH  087%=      5-min Rain = 0
KWT1 130953Z 25011KT M01/M03 A3019 RMK A01 T10061025  RH  087%=      5-min Rain = 0
KWT1 130954Z 25011KT M01/M03 A3019 RMK A01 T10071026  RH  087%=      5-min Rain = 0
KWT1 130955Z 25012KT M01/M03 A3019 RMK A01 T10061025  RH  087%=      5-min Rain = 0
KWT1 130956Z 25012KT M01/M03 A3019 RMK A01 T10061026  RH  087%=      5-min Rain = 0
KWT1 130957Z 25011KT M01/M03 A3019 RMK A01 T10061025  RH  087%=      5-min Rain = 0
KWT1 130958Z 25011KT M01/M03 A3019 RMK A01 T10051025  RH  086%=      5-min Rain = 0
KWT1 130959Z 25011KT M01/M03 A3019 RMK A01 T10051025  RH  086%=      5-min Rain = 0
KWT1 131000Z 25011KT M01/M03 A3019 RMK A01 T10061026  RH  086%=      5-min Rain = 0
KWT1 131001Z 25010KT M01/M03 A3019 RMK A01 T10061025  RH  086%=      5-min Rain = 0
KWT1 131002Z 25011KT M01/M03 A3019 RMK A01 T10051025  RH  086%=      5-min Rain = 0
KWT1 131003Z 25011KT M01/M03 A3019 RMK A01 T10051026  RH  086%=      5-min Rain = 0
KWT1 131004Z 25010KT M01/M03 A3019 RMK A01 T10051026  RH  086%=      5-min Rain = 0
KWT1 131005Z 25011KT M01/M03 A3019 RMK A01 T10051026  RH  086%=      5-min Rain = 0
KWT1 131006Z 25010KT M01/M03 A3019 RMK A01 T10061026  RH  086%=      5-min Rain = 0
KWT1 131007Z 25010KT M01/M03 A3019 RMK A01 T10061026  RH  086%=      5-min Rain = 0
KWT1 131008Z 25010KT M01/M03 A3018 RMK A01 T10061026  RH  086%=      5-min Rain = 0
KWT1 131009Z 25010KT M01/M03 A3018 RMK A01 T10061026  RH  086%=      5-min Rain = 0
KWT1 131010Z 25010KT M01/M03 A3018 RMK A01 T10061026  RH  086%=      5-min Rain = 0
KWT1 131011Z 24010KT M01/M03 A3018 RMK A01 T10061026  RH  086%=      5-min Rain = 0
KWT1 131012Z 25010KT M01/M03 A3018 RMK A01 T10071027  RH  086%=      5-min Rain = 0
KWT1 131013Z 24010KT M01/M03 A3018 RMK A01 T10071027  RH  087%=      5-min Rain = 0
KWT1 131014Z 25010KT M01/M03 A3018 RMK A01 T10071027  RH  087%=      5-min Rain = 0
KWT1 131015Z 25010KT M01/M03 A3018 RMK A01 T10081027  RH  087%=      5-min Rain = 0
KWT1 131016Z 25011KT M01/M03 A3018 RMK A01 T10081027  RH  087%=      5-min Rain = 0
KWT1 131017Z 25010KT M01/M03 A3019 RMK A01 T10091027  RH  087%=      5-min Rain = 0
KWT1 131018Z 25011KT M01/M03 A3018 RMK A01 T10091027  RH  087%=      5-min Rain = 0
KWT1 131019Z 25009KT M01/M03 A3018 RMK A01 T10091027  RH  087%=      5-min Rain = 0
KWT1 131020Z 25010KT M01/M03 A3018 RMK A01 T10091028  RH  087%=      5-min Rain = 0
KWT1 131021Z 25011KT M01/M03 A3018 RMK A01 T10101028  RH  087%=      5-min Rain = 0
KWT1 131022Z 25011KT M01/M03 A3018 RMK A01 T10091028  RH  088%=      5-min Rain = 0
KWT1 131023Z 25010KT M01/M03 A3018 RMK A01 T10091028  RH  087%=      5-min Rain = 0
KWT1 131024Z 24009KT M01/M03 A3018 RMK A01 T10091028  RH  087%=      5-min Rain = 0
KWT1 131025Z 24011KT M01/M03 A3018 RMK A01 T10101029  RH  087%=      5-min Rain = 0
KWT1 131026Z 25009KT M01/M03 A3018 RMK A01 T10101029  RH  088%=      5-min Rain = 0
KWT1 131027Z 25010KT M01/M03 A3018 RMK A01 T10111028  RH  088%=      5-min Rain = 0
KWT1 131028Z 25010KT M01/M03 A3018 RMK A01 T10111029  RH  088%=      5-min Rain = 0
KWT1 131029Z 25009KT M01/M03 A3018 RMK A01 T10111029  RH  088%=      5-min Rain = 0
KWT1 131030Z 25009KT M01/M03 A3018 RMK A01 T10111029  RH  088%=      5-min Rain = 0
KWT1 131031Z 25009KT M01/M03 A3018 RMK A01 T10121029  RH  088%=      5-min Rain = 0
KWT1 131032Z 25010KT M01/M03 A3018 RMK A01 T10121029  RH  088%=      5-min Rain = 0
KWT1 131033Z 25010KT M01/M03 A3018 RMK A01 T10121029  RH  088%=      5-min Rain = 0
KWT1 131034Z 25010KT M01/M03 A3018 RMK A01 T10121029  RH  088%=      5-min Rain = 0
KWT1 131035Z 25010KT M01/M03 A3018 RMK A01 T10111028  RH  088%=      5-min Rain = 0
KWT1 131036Z 25010KT M01/M03 A3018 RMK A01 T10101028  RH  088%=      5-min Rain = 0
KWT1 131037Z 25010KT M01/M03 A3018 RMK A01 T10101028  RH  087%=      5-min Rain = 0
KWT1 131038Z 25008KT M01/M03 A3018 RMK A01 T10091028  RH  087%=      5-min Rain = 0
KWT1 131039Z 25010KT M01/M03 A3019 RMK A01 T10091028  RH  087%=      5-min Rain = 0
KWT1 131040Z 25009KT M01/M03 A3019 RMK A01 T10091028  RH  087%=      5-min Rain = 0
KWT1 131041Z 25009KT M01/M03 A3019 RMK A01 T10091029  RH  087%=      5-min Rain = 0
KWT1 131042Z 25008KT M01/M03 A3018 RMK A01 T10101029  RH  087%=      5-min Rain = 0
KWT1 131043Z 25008KT M01/M03 A3018 RMK A01 T10101029  RH  087%=      5-min Rain = 0
KWT1 131044Z 24008KT M01/M03 A3018 RMK A01 T10111030  RH  087%=      5-min Rain = 0
KWT1 131045Z 25008KT M01/M03 A3018 RMK A01 T10121031  RH  087%=      5-min Rain = 0
KWT1 131046Z 24008KT M01/M03 A3018 RMK A01 T10131031  RH  087%=      5-min Rain = 0
KWT1 131047Z 24007KT M01/M03 A3018 RMK A01 T10131031  RH  088%=      5-min Rain = 0
KWT1 131048Z 24007KT M01/M03 A3018 RMK A01 T10141031  RH  088%=      5-min Rain = 0
KWT1 131049Z 24007KT M01/M03 A3018 RMK A01 T10141031  RH  088%=      5-min Rain = 0
KWT1 131050Z 24007KT M02/M03 A3018 RMK A01 T10151032  RH  088%=      5-min Rain = 0
KWT1 131051Z 24008KT M02/M03 A3018 RMK A01 T10151032  RH  089%=      5-min Rain = 0
KWT1 131052Z 24008KT M02/M03 A3018 RMK A01 T10161032  RH  089%=      5-min Rain = 0
KWT1 131053Z 24008KT M02/M03 A3018 RMK A01 T10161032  RH  089%=      5-min Rain = 0
KWT1 131054Z 24008KT M02/M03 A3018 RMK A01 T10171033  RH  089%=      5-min Rain = 0
KWT1 131055Z 23007KT M02/M03 A3018 RMK A01 T10181033  RH  089%=      5-min Rain = 0
KWT1 131056Z 23007KT M02/M03 A3018 RMK A01 T10181033  RH  089%=      5-min Rain = 0
KWT1 131057Z 23007KT M02/M03 A3018 RMK A01 T10181033  RH  090%=      5-min Rain = 0
KWT1 131058Z 23007KT M02/M03 A3018 RMK A01 T10181033  RH  090%=      5-min Rain = 0
KWT1 131059Z 23007KT M02/M03 A3018 RMK A01 T10181033  RH  090%=      5-min Rain = 0
KWT1 131100Z 23008KT M02/M03 A3018 RMK A01 T10181033  RH  090%=      5-min Rain = 0
KWT1 131101Z 23008KT M02/M03 A3018 RMK A01 T10181033  RH  090%=      5-min Rain = 0
KWT1 131102Z 23008KT M02/M03 A3018 RMK A01 T10191033  RH  090%=      5-min Rain = 0
KWT1 131103Z 23008KT M02/M03 A3018 RMK A01 T10191033  RH  090%=      5-min Rain = 0
KWT1 131104Z 23008KT M02/M03 A3018 RMK A01 T10191033  RH  090%=      5-min Rain = 0
KWT1 131105Z 23008KT M02/M03 A3018 RMK A01 T10191033  RH  090%=      5-min Rain = 0
KWT1 131106Z 23008KT M02/M03 A3018 RMK A01 T10191034  RH  090%=      5-min Rain = 0
KWT1 131107Z 23008KT M02/M03 A3017 RMK A01 T10191034  RH  090%=      5-min Rain = 0
KWT1 131108Z 23008KT M02/M03 A3017 RMK A01 T10201034  RH  090%=      5-min Rain = 0
KWT1 131109Z 22008KT M02/M04 A3017 RMK A01 T10201035  RH  090%=      5-min Rain = 0
KWT1 131110Z 23007KT M02/M04 A3017 RMK A01 T10201035  RH  090%=      5-min Rain = 0
KWT1 131111Z 23008KT M02/M04 A3017 RMK A01 T10211035  RH  090%=      5-min Rain = 0
KWT1 131112Z 23008KT M02/M04 A3017 RMK A01 T10211035  RH  090%=      5-min Rain = 0
KWT1 131113Z 23008KT M02/M03 A3017 RMK A01 T10211034  RH  091%=      5-min Rain = 0
KWT1 131114Z 23007KT M02/M04 A3017 RMK A01 T10211035  RH  091%=      5-min Rain = 0
KWT1 131115Z 23007KT M02/M04 A3017 RMK A01 T10221035  RH  091%=      5-min Rain = 0
KWT1 131116Z 23007KT M02/M04 A3017 RMK A01 T10221035  RH  091%=      5-min Rain = 0
KWT1 131117Z 23008KT M02/M04 A3017 RMK A01 T10231036  RH  091%=      5-min Rain = 0
KWT1 131118Z 23007KT M02/M04 A3017 RMK A01 T10231036  RH  091%=      5-min Rain = 0
KWT1 131119Z 23007KT M02/M04 A3017 RMK A01 T10241036  RH  091%=      5-min Rain = 0
KWT1 131120Z 23008KT M02/M04 A3017 RMK A01 T10241036  RH  091%=      5-min Rain = 0
KWT1 131121Z 22007KT M02/M04 A3017 RMK A01 T10241036  RH  092%=      5-min Rain = 0
KWT1 131122Z 22007KT M03/M04 A3017 RMK A01 T10251036  RH  092%=      5-min Rain = 0
KWT1 131123Z 22007KT M03/M04 A3017 RMK A01 T10251036  RH  092%=      5-min Rain = 0
KWT1 131124Z 22007KT M03/M04 A3017 RMK A01 T10251036  RH  092%=      5-min Rain = 0
KWT1 131125Z 22008KT M03/M04 A3017 RMK A01 T10261037  RH  092%=      5-min Rain = 0
KWT1 131126Z 22008KT M03/M04 A3017 RMK A01 T10271038  RH  093%=      5-min Rain = 0
KWT1 131127Z 22008KT M03/M04 A3017 RMK A01 T10271037  RH  093%=      5-min Rain = 0
KWT1 131128Z 22007KT M03/M04 A3017 RMK A01 T10281037  RH  093%=      5-min Rain = 0
KWT1 131129Z 22008KT M03/M04 A3017 RMK A01 T10281037  RH  093%=      5-min Rain = 0
KWT1 131130Z 22008KT M03/M04 A3017 RMK A01 T10281037  RH  094%=      5-min Rain = 0
KWT1 131131Z 22008KT M03/M04 A3017 RMK A01 T10291037  RH  094%=      5-min Rain = 0
KWT1 131132Z 22007KT M03/M04 A3017 RMK A01 T10291037  RH  094%=      5-min Rain = 0
KWT1 131133Z 22007KT M03/M04 A3017 RMK A01 T10301038  RH  094%=      5-min Rain = 0
KWT1 131134Z 22007KT M03/M04 A3017 RMK A01 T10301038  RH  094%=      5-min Rain = 0
KWT1 131135Z 22007KT M03/M04 A3017 RMK A01 T10311039  RH  094%=      5-min Rain = 0
KWT1 131136Z 21007KT M03/M04 A3017 RMK A01 T10311039  RH  095%=      5-min Rain = 0
KWT1 131137Z 21007KT M03/M04 A3016 RMK A01 T10311038  RH  095%=      5-min Rain = 0
KWT1 131138Z 22007KT M03/M04 A3016 RMK A01 T10311038  RH  095%=      5-min Rain = 0
KWT1 131139Z 22007KT M03/M04 A3016 RMK A01 T10311038  RH  095%=      5-min Rain = 0
KWT1 131140Z 22007KT M03/M04 A3016 RMK A01 T10321038  RH  095%=      5-min Rain = 0
KWT1 131141Z 22007KT M03/M04 A3016 RMK A01 T10321038  RH  095%=      5-min Rain = 0
KWT1 131142Z 22007KT M03/M04 A3016 RMK A01 T10321038  RH  096%=      5-min Rain = 0
KWT1 131143Z 22008KT M03/M04 A3016 RMK A01 T10321038  RH  096%=      5-min Rain = 0
KWT1 131144Z 22008KT M03/M04 A3016 RMK A01 T10321038  RH  096%=      5-min Rain = 0
KWT1 131145Z 22008KT M03/M04 A3016 RMK A01 T10321038  RH  096%=      5-min Rain = 0
KWT1 131146Z 22008KT M03/M04 A3016 RMK A01 T10321038  RH  096%=      5-min Rain = 0
KWT1 131147Z 22008KT M03/M04 A3016 RMK A01 T10321037  RH  096%=      5-min Rain = 0
KWT1 131148Z 22008KT M03/M04 A3016 RMK A01 T10311037  RH  096%=      5-min Rain = 0
KWT1 131149Z 21008KT M03/M04 A3016 RMK A01 T10301036  RH  096%=      5-min Rain = 0
KWT1 131150Z 21008KT M03/M04 A3016 RMK A01 T10311036  RH  096%=      5-min Rain = 0
KWT1 131151Z 21008KT M03/M04 A3016 RMK A01 T10301036  RH  096%=      5-min Rain = 0
KWT1 131152Z 21008KT M03/M04 A3016 RMK A01 T10301036  RH  096%=      5-min Rain = 0
KWT1 131153Z 21008KT M03/M04 A3016 RMK A01 T10291035  RH  096%=      5-min Rain = 0
KWT1 131154Z 21008KT M03/M04 A3016 RMK A01 T10291035  RH  096%=      5-min Rain = 0
KWT1 131155Z 21008KT M03/M04 A3016 RMK A01 T10291035  RH  096%=      5-min Rain = 0
KWT1 131156Z 20008KT M03/M04 A3016 RMK A01 T10291035  RH  096%=      5-min Rain = 0
KWT1 131157Z 21009KT M03/M04 A3016 RMK A01 T10281035  RH  096%=      5-min Rain = 0
KWT1 131158Z 21008KT M03/M03 A3015 RMK A01 T10271033  RH  096%=      5-min Rain = 0
KWT1 131159Z 21008KT M03/M03 A3016 RMK A01 T10271033  RH  096%=      5-min Rain = 0
KWT1 131200Z 21008KT M03/M03 A3016 RMK A01 T10271033  RH  095%=      5-min Rain = 0
KWT1 131201Z 21007KT M03/M03 A3016 RMK A01 T10271033  RH  095%=      5-min Rain = 0
KWT1 131202Z 21008KT M03/M03 A3016 RMK A01 T10271034  RH  095%=      5-min Rain = 0
KWT1 131203Z 21007KT M03/M03 A3016 RMK A01 T10271033  RH  095%=      5-min Rain = 0
KWT1 131204Z 21008KT M03/M03 A3016 RMK A01 T10271034  RH  095%=      5-min Rain = 0
KWT1 131205Z 21008KT M03/M03 A3016 RMK A01 T10271034  RH  095%=      5-min Rain = 0
KWT1 131206Z 21007KT M03/M04 A3015 RMK A01 T10271035  RH  095%=      5-min Rain = 0
KWT1 131207Z 21008KT M03/M04 A3015 RMK A01 T10281035  RH  095%=      5-min Rain = 0
KWT1 131208Z 21008KT M03/M04 A3015 RMK A01 T10281035  RH  095%=      5-min Rain = 0
KWT1 131209Z 21008KT M03/M04 A3015 RMK A01 T10281035  RH  095%=      5-min Rain = 0
KWT1 131210Z 21008KT M03/M04 A3015 RMK A01 T10281035  RH  095%=      5-min Rain = 0
KWT1 131211Z 21007KT M03/M04 A3015 RMK A01 T10281035  RH  095%=      5-min Rain = 0
KWT1 131212Z 21008KT M03/M04 A3015 RMK A01 T10281035  RH  095%=      5-min Rain = 0
KWT1 131213Z 21007KT M03/M04 A3015 RMK A01 T10291036  RH  095%=      5-min Rain = 0
KWT1 131214Z 21008KT M03/M04 A3015 RMK A01 T10291036  RH  095%=      5-min Rain = 0
KWT1 131215Z 21008KT M03/M04 A3015 RMK A01 T10301036  RH  095%=      5-min Rain = 0
KWT1 131216Z 21008KT M03/M04 A3015 RMK A01 T10301036  RH  095%=      5-min Rain = 0
KWT1 131217Z 21008KT M03/M04 A3015 RMK A01 T10311037  RH  096%=      5-min Rain = 0
KWT1 131218Z 21007KT M03/M04 A3015 RMK A01 T10311036  RH  096%=      5-min Rain = 0
KWT1 131219Z 21007KT M03/M04 A3015 RMK A01 T10311037  RH  096%=      5-min Rain = 0
KWT1 131220Z 21007KT M03/M04 A3015 RMK A01 T10321037  RH  096%=      5-min Rain = 0
KWT1 131221Z 21007KT M03/M04 A3015 RMK A01 T10321037  RH  096%=      5-min Rain = 0
KWT1 131222Z 21007KT M03/M04 A3015 RMK A01 T10321037  RH  096%=      5-min Rain = 0
KWT1 131223Z 21007KT M03/M04 A3015 RMK A01 T10321037  RH  096%=      5-min Rain = 0
KWT1 131224Z 21007KT M03/M04 A3015 RMK A01 T10321036  RH  097%=      5-min Rain = 0
KWT1 131225Z 21007KT M03/M04 A3015 RMK A01 T10321036  RH  097%=      5-min Rain = 0
KWT1 131226Z 21006KT M03/M04 A3015 RMK A01 T10321036  RH  097%=      5-min Rain = 0
KWT1 131227Z 21007KT M03/M04 A3015 RMK A01 T10311036  RH  097%=      5-min Rain = 0
KWT1 131228Z 21007KT M03/M04 A3015 RMK A01 T10311035  RH  097%=      5-min Rain = 0
KWT1 131229Z 21007KT M03/M04 A3015 RMK A01 T10311035  RH  097%=      5-min Rain = 0
KWT1 131230Z 21007KT M03/M04 A3015 RMK A01 T10311035  RH  097%=      5-min Rain = 0
KWT1 131231Z 21006KT M03/M03 A3015 RMK A01 T10311034  RH  097%=      5-min Rain = 0
KWT1 131232Z 21006KT M03/M03 A3015 RMK A01 T10311034  RH  098%=      5-min Rain = 0
KWT1 131233Z 22006KT M03/M03 A3015 RMK A01 T10311034  RH  098%=      5-min Rain = 0
KWT1 131234Z 22006KT M03/M03 A3015 RMK A01 T10301034  RH  098%=      5-min Rain = 0
KWT1 131235Z 22006KT M03/M03 A3015 RMK A01 T10301033  RH  098%=      5-min Rain = 0
KWT1 131236Z 22006KT M03/M03 A3015 RMK A01 T10301033  RH  098%=      5-min Rain = 0
KWT1 131237Z 22005KT M03/M03 A3015 RMK A01 T10301033  RH  098%=      5-min Rain = 0
KWT1 131238Z 22005KT M03/M03 A3015 RMK A01 T10301033  RH  098%=      5-min Rain = 0
KWT1 131239Z 22005KT M03/M03 A3015 RMK A01 T10301033  RH  098%=      5-min Rain = 0
KWT1 131240Z 22005KT M03/M03 A3015 RMK A01 T10301033  RH  098%=      5-min Rain = 0
KWT1 131241Z 22005KT M03/M03 A3015 RMK A01 T10311034  RH  097%=      5-min Rain = 0
KWT1 131242Z 21006KT M03/M03 A3015 RMK A01 T10311034  RH  097%=      5-min Rain = 0
KWT1 131243Z 21005KT M03/M04 A3015 RMK A01 T10311035  RH  097%=      5-min Rain = 0
KWT1 131244Z 21006KT M03/M04 A3015 RMK A01 T10321035  RH  097%=      5-min Rain = 0
KWT1 131245Z 21005KT M03/M04 A3015 RMK A01 T10321036  RH  097%=      5-min Rain = 0
KWT1 131246Z 22005KT M03/M04 A3015 RMK A01 T10321036  RH  098%=      5-min Rain = 0
KWT1 131247Z 22005KT M03/M04 A3015 RMK A01 T10331036  RH  098%=      5-min Rain = 0
KWT1 131248Z 21005KT M03/M04 A3015 RMK A01 T10331036  RH  098%=      5-min Rain = 0
KWT1 131249Z 21005KT M03/M04 A3015 RMK A01 T10331036  RH  098%=      5-min Rain = 0
KWT1 131250Z 21005KT M03/M04 A3015 RMK A01 T10341037  RH  098%=      5-min Rain = 0
KWT1 131251Z 21005KT M03/M04 A3015 RMK A01 T10341037  RH  098%=      5-min Rain = 0
KWT1 131252Z 20005KT M04/M04 A3015 RMK A01 T10351038  RH  098%=      5-min Rain = 0
KWT1 131253Z 20004KT M04/M04 A3015 RMK A01 T10351038  RH  098%=      5-min Rain = 0
KWT1 131254Z 20005KT M04/M04 A3015 RMK A01 T10361039  RH  098%=      5-min Rain = 0
KWT1 131255Z 20004KT M04/M04 A3015 RMK A01 T10361040  RH  098%=      5-min Rain = 0
KWT1 131256Z 20004KT M04/M04 A3015 RMK A01 T10371040  RH  098%=      5-min Rain = 0
KWT1 131257Z 19004KT M04/M04 A3015 RMK A01 T10381041  RH  098%=      5-min Rain = 0
KWT1 131258Z 19004KT M04/M04 A3015 RMK A01 T10381041  RH  098%=      5-min Rain = 0
KWT1 131259Z 19003KT M04/M04 A3015 RMK A01 T10391042  RH  098%=      5-min Rain = 0
KWT1 131300Z 19003KT M04/M04 A3015 RMK A01 T10401043  RH  098%=      5-min Rain = 0
KWT1 131301Z 20003KT M04/M04 A3015 RMK A01 T10401043  RH  098%=      5-min Rain = 0
KWT1 131302Z 20003KT M04/M04 A3015 RMK A01 T10401043  RH  098%=      5-min Rain = 0
KWT1 131303Z 20003KT M04/M04 A3015 RMK A01 T10401043  RH  098%=      5-min Rain = 0
KWT1 131304Z 21003KT M04/M04 A3015 RMK A01 T10411043  RH  098%=      5-min Rain = 0
KWT1 131305Z 21003KT M04/M04 A3015 RMK A01 T10411043  RH  098%=      5-min Rain = 0
KWT1 131306Z 21003KT M04/M04 A3015 RMK A01 T10411043  RH  098%=      5-min Rain = 0
KWT1 131307Z 21003KT M04/M04 A3015 RMK A01 T10401042  RH  099%=      5-min Rain = 0
KWT1 131308Z 22003KT M04/M04 A3015 RMK A01 T10381039  RH  099%=      5-min Rain = 0
KWT1 131309Z 23004KT M04/M04 A3015 RMK A01 T10371037  RH  100%=      5-min Rain = 0
KWT1 131310Z 23004KT M04/M04 A3015 RMK A01 T10361036  RH  100%=      5-min Rain = 0
KWT1 131311Z 23003KT M04/M04 A3015 RMK A01 T10351035  RH  100%=      5-min Rain = 0
KWT1 131312Z 23003KT M04/M04 A3015 RMK A01 T10351035  RH  100%=      5-min Rain = 0
KWT1 131313Z 23004KT M04/M04 A3015 RMK A01 T10351035  RH  100%=      5-min Rain = 0
KWT1 131314Z 23004KT M04/M04 A3015 RMK A01 T10351036  RH  100%=      5-min Rain = 0
KWT1 131315Z 23005KT M04/M04 A3015 RMK A01 T10351036  RH  100%=      5-min Rain = 0
KWT1 131316Z 23005KT M04/M04 A3015 RMK A01 T10351036  RH  100%=      5-min Rain = 0
KWT1 131317Z 22006KT M04/M04 A3015 RMK A01 T10351036  RH  099%=      5-min Rain = 0
KWT1 131318Z 22006KT M04/M04 A3015 RMK A01 T10361037  RH  099%=      5-min Rain = 0
KWT1 131319Z 22006KT M04/M04 A3015 RMK A01 T10361037  RH  099%=      5-min Rain = 0
KWT1 131320Z 22006KT M04/M04 A3015 RMK A01 T10361037  RH  099%=      5-min Rain = 0
KWT1 131321Z 22006KT M04/M04 A3015 RMK A01 T10361037  RH  100%=      5-min Rain = 0
KWT1 131322Z 22006KT M04/M04 A3015 RMK A01 T10361036  RH  100%=      5-min Rain = 0
KWT1 131323Z 23006KT M04/M04 A3015 RMK A01 T10361036  RH  100%=      5-min Rain = 0
KWT1 131324Z 23005KT M04/M04 A3015 RMK A01 T10361036  RH  100%=      5-min Rain = 0
KWT1 131325Z 22006KT M04/M04 A3015 RMK A01 T10361036  RH  099%=      5-min Rain = 0
KWT1 131326Z 23006KT M04/M04 A3015 RMK A01 T10351036  RH  099%=      5-min Rain = 0
KWT1 131327Z 23006KT M04/M04 A3015 RMK A01 T10361037  RH  099%=      5-min Rain = 0
KWT1 131328Z 23006KT M04/M04 A3015 RMK A01 T10361037  RH  099%=      5-min Rain = 0
KWT1 131329Z 22006KT M04/M04 A3015 RMK A01 T10351037  RH  099%=      5-min Rain = 0
KWT1 131330Z 22006KT M04/M04 A3015 RMK A01 T10351036  RH  099%=      5-min Rain = 0
KWT1 131331Z 22006KT M04/M04 A3015 RMK A01 T10351036  RH  099%=      5-min Rain = 0
KWT1 131332Z 22006KT M03/M04 A3015 RMK A01 T10341035  RH  099%=      5-min Rain = 0
KWT1 131333Z 22005KT M03/M04 A3015 RMK A01 T10341036  RH  099%=      5-min Rain = 0
KWT1 131334Z 22006KT M03/M04 A3015 RMK A01 T10341036  RH  099%=      5-min Rain = 0
KWT1 131335Z 22006KT M03/M04 A3015 RMK A01 T10341035  RH  099%=      5-min Rain = 0
KWT1 131336Z 22006KT M03/M04 A3015 RMK A01 T10331035  RH  099%=      5-min Rain = 0
KWT1 131337Z 22005KT M03/M04 A3015 RMK A01 T10331035  RH  099%=      5-min Rain = 0
KWT1 131338Z 22006KT M03/M04 A3014 RMK A01 T10331035  RH  098%=      5-min Rain = 0
KWT1 131339Z 22006KT M03/M04 A3014 RMK A01 T10341036  RH  098%=      5-min Rain = 0
KWT1 131340Z 22006KT M03/M04 A3014 RMK A01 T10341037  RH  098%=      5-min Rain = 0
KWT1 131341Z 21006KT M04/M04 A3014 RMK A01 T10351038  RH  098%=      5-min Rain = 0
KWT1 131342Z 21007KT M04/M04 A3014 RMK A01 T10351039  RH  098%=      5-min Rain = 0
KWT1 131343Z 21007KT M04/M04 A3014 RMK A01 T10351038  RH  098%=      5-min Rain = 0
KWT1 131344Z 21007KT M04/M04 A3014 RMK A01 T10351038  RH  098%=      5-min Rain = 0
KWT1 131345Z 21007KT M04/M04 A3014 RMK A01 T10351038  RH  098%=      5-min Rain = 0
KWT1 131346Z 21007KT M04/M04 A3014 RMK A01 T10351038  RH  098%=      5-min Rain = 0
KWT1 131347Z 21007KT M04/M04 A3014 RMK A01 T10351038  RH  098%=      5-min Rain = 0
KWT1 131348Z 21007KT M03/M04 A3014 RMK A01 T10341037  RH  098%=      5-min Rain = 0
KWT1 131349Z 22007KT M03/M04 A3014 RMK A01 T10341037  RH  098%=      5-min Rain = 0
KWT1 131350Z 22007KT M03/M04 A3014 RMK A01 T10331036  RH  098%=      5-min Rain = 0
KWT1 131351Z 22007KT M03/M04 A3014 RMK A01 T10331036  RH  098%=      5-min Rain = 0
KWT1 131352Z 22007KT M03/M04 A3014 RMK A01 T10331036  RH  098%=      5-min Rain = 0
KWT1 131353Z 22007KT M03/M04 A3014 RMK A01 T10331036  RH  098%=      5-min Rain = 0
KWT1 131354Z 22006KT M03/M04 A3014 RMK A01 T10331036  RH  098%=      5-min Rain = 0
KWT1 131355Z 22006KT M03/M04 A3015 RMK A01 T10321035  RH  098%=      5-min Rain = 0
KWT1 131356Z 22006KT M03/M04 A3014 RMK A01 T10321035  RH  098%=      5-min Rain = 0
KWT1 131357Z 22007KT M03/M04 A3015 RMK A01 T10321035  RH  098%=      5-min Rain = 0
KWT1 131358Z 23006KT M03/M04 A3015 RMK A01 T10321036  RH  097%=      5-min Rain = 0
KWT1 131359Z 22006KT M03/M04 A3014 RMK A01 T10321036  RH  097%=      5-min Rain = 0
KWT1 131400Z 22006KT M03/M04 A3014 RMK A01 T10321036  RH  097%=      5-min Rain = 0
KWT1 131401Z 22006KT M03/M04 A3014 RMK A01 T10321036  RH  097%=      5-min Rain = 0
KWT1 131402Z 22007KT M03/M04 A3014 RMK A01 T10321037  RH  097%=      5-min Rain = 0
KWT1 131403Z 22007KT M03/M04 A3014 RMK A01 T10321036  RH  097%=      5-min Rain = 0
KWT1 131404Z 22007KT M03/M04 A3014 RMK A01 T10311036  RH  097%=      5-min Rain = 0
KWT1 131405Z 22007KT M03/M04 A3014 RMK A01 T10311036  RH  097%=      5-min Rain = 0
KWT1 131406Z 23007KT M03/M04 A3014 RMK A01 T10311036  RH  097%=      5-min Rain = 0
KWT1 131407Z 23007KT M03/M04 A3014 RMK A01 T10301035  RH  097%=      5-min Rain = 0
KWT1 131408Z 23006KT M03/M04 A3014 RMK A01 T10301035  RH  096%=      5-min Rain = 0
KWT1 131409Z 23007KT M03/M04 A3014 RMK A01 T10301035  RH  096%=      5-min Rain = 0
KWT1 131410Z 23007KT M03/M04 A3014 RMK A01 T10301035  RH  096%=      5-min Rain = 0
KWT1 131411Z 23007KT M03/M04 A3014 RMK A01 T10301036  RH  096%=      5-min Rain = 0
KWT1 131412Z 22008KT M03/M04 A3014 RMK A01 T10301036  RH  096%=      5-min Rain = 0
KWT1 131413Z 22007KT M03/M04 A3014 RMK A01 T10301036  RH  096%=      5-min Rain = 0
KWT1 131414Z 22008KT M03/M04 A3014 RMK A01 T10301036  RH  096%=      5-min Rain = 0
KWT1 131415Z 22008KT M03/M04 A3014 RMK A01 T10291035  RH  096%=      5-min Rain = 0
KWT1 131416Z 22008KT M03/M03 A3014 RMK A01 T10281034  RH  096%=      5-min Rain = 0
KWT1 131417Z 22007KT M03/M03 A3014 RMK A01 T10271032  RH  096%=      5-min Rain = 0
KWT1 131418Z 22008KT M03/M03 A3014 RMK A01 T10261031  RH  096%=      5-min Rain = 0
KWT1 131419Z 22008KT M03/M03 A3014 RMK A01 T10251031  RH  096%=      5-min Rain = 0
KWT1 131420Z 21008KT M03/M03 A3014 RMK A01 T10251032  RH  095%=      5-min Rain = 0
KWT1 131421Z 21008KT M03/M03 A3014 RMK A01 T10251032  RH  095%=      5-min Rain = 0
KWT1 131422Z 21008KT M03/M03 A3013 RMK A01 T10251032  RH  095%=      5-min Rain = 0
KWT1 131423Z 21008KT M03/M03 A3013 RMK A01 T10251032  RH  095%=      5-min Rain = 0
KWT1 131424Z 21008KT M03/M03 A3013 RMK A01 T10251033  RH  094%=      5-min Rain = 0
KWT1 131425Z 20007KT M03/M03 A3013 RMK A01 T10251032  RH  094%=      5-min Rain = 0
KWT1 131426Z 21007KT M02/M03 A3013 RMK A01 T10241032  RH  095%=      5-min Rain = 0
KWT1 131427Z 21007KT M02/M03 A3013 RMK A01 T10241031  RH  095%=      5-min Rain = 0
KWT1 131428Z 21007KT M02/M03 A3013 RMK A01 T10221030  RH  095%=      5-min Rain = 0
KWT1 131429Z 21007KT M02/M03 A3013 RMK A01 T10221029  RH  095%=      5-min Rain = 0
KWT1 131430Z 21006KT M02/M03 A3013 RMK A01 T10211029  RH  095%=      5-min Rain = 0
KWT1 131431Z 21005KT M02/M03 A3014 RMK A01 T10211029  RH  094%=      5-min Rain = 0
KWT1 131432Z 21006KT M02/M03 A3013 RMK A01 T10211029  RH  094%=      5-min Rain = 0
KWT1 131433Z 21006KT M02/M03 A3013 RMK A01 T10201028  RH  094%=      5-min Rain = 0
KWT1 131434Z 21006KT M02/M03 A3013 RMK A01 T10201029  RH  094%=      5-min Rain = 0
KWT1 131435Z 21006KT M02/M03 A3013 RMK A01 T10201029  RH  094%=      5-min Rain = 0
KWT1 131436Z 21006KT M02/M03 A3013 RMK A01 T10201029  RH  094%=      5-min Rain = 0
KWT1 131437Z 20006KT M02/M03 A3013 RMK A01 T10191028  RH  094%=      5-min Rain = 0
KWT1 131438Z 20007KT M02/M03 A3013 RMK A01 T10191028  RH  094%=      5-min Rain = 0
KWT1 131439Z 21006KT M02/M03 A3013 RMK A01 T10191028  RH  094%=      5-min Rain = 0
KWT1 131440Z 21006KT M02/M03 A3013 RMK A01 T10191027  RH  094%=      5-min Rain = 0
KWT1 131441Z 21006KT M02/M03 A3013 RMK A01 T10181027  RH  094%=      5-min Rain = 0
KWT1 131442Z 21006KT M02/M03 A3013 RMK A01 T10171025  RH  094%=      5-min Rain = 0
KWT1 131443Z 22006KT M02/M02 A3013 RMK A01 T10161024  RH  094%=      5-min Rain = 0
KWT1 131444Z 22006KT M02/M02 A3013 RMK A01 T10151023  RH  094%=      5-min Rain = 0
KWT1 131445Z 22006KT M01/M02 A3012 RMK A01 T10141022  RH  094%=      5-min Rain = 0
KWT1 131446Z 21006KT M01/M02 A3012 RMK A01 T10131022  RH  094%=      5-min Rain = 0
KWT1 131447Z 21007KT M01/M02 A3012 RMK A01 T10131022  RH  094%=      5-min Rain = 0
KWT1 131448Z 21006KT M01/M02 A3012 RMK A01 T10131022  RH  094%=      5-min Rain = 0
KWT1 131449Z 22006KT M01/M02 A3012 RMK A01 T10131022  RH  093%=      5-min Rain = 0
KWT1 131450Z 22006KT M01/M02 A3012 RMK A01 T10131022  RH  093%=      5-min Rain = 0
KWT1 131451Z 22005KT M01/M02 A3012 RMK A01 T10121021  RH  093%=      5-min Rain = 0
KWT1 131452Z 22006KT M01/M02 A3012 RMK A01 T10111020  RH  094%=      5-min Rain = 0
KWT1 131453Z 22005KT M01/M02 A3012 RMK A01 T10111020  RH  094%=      5-min Rain = 0
KWT1 131454Z 22005KT M01/M02 A3012 RMK A01 T10111020  RH  094%=      5-min Rain = 0
KWT1 131455Z 22006KT M01/M02 A3012 RMK A01 T10111020  RH  094%=      5-min Rain = 0
KWT1 131456Z 22006KT M01/M02 A3012 RMK A01 T10101019  RH  094%=      5-min Rain = 0
KWT1 131457Z 22006KT M01/M02 A3012 RMK A01 T10101019  RH  094%=      5-min Rain = 0
KWT1 131458Z 22006KT M01/M02 A3012 RMK A01 T10091018  RH  094%=      5-min Rain = 0
KWT1 131459Z 22005KT M01/M02 A3012 RMK A01 T10081018  RH  093%=      5-min Rain = 0
KWT1 131500Z 22005KT M01/M02 A3012 RMK A01 T10081018  RH  093%=      5-min Rain = 0
KWT1 131501Z 22006KT M01/M02 A3012 RMK A01 T10071016  RH  093%=      5-min Rain = 0
KWT1 131502Z 22005KT M01/M02 A3012 RMK A01 T10071016  RH  093%=      5-min Rain = 0
KWT1 131503Z 21004KT M01/M02 A3012 RMK A01 T10061016  RH  093%=      5-min Rain = 0
KWT1 131504Z 21006KT M01/M02 A3012 RMK A01 T10051016  RH  093%=      5-min Rain = 0
KWT1 131505Z 21006KT M01/M02 A3012 RMK A01 T10051016  RH  092%=      5-min Rain = 0
KWT1 131506Z 22006KT M00/M02 A3012 RMK A01 T10041015  RH  092%=      5-min Rain = 0
KWT1 131507Z 22006KT M00/M02 A3012 RMK A01 T10031015  RH  092%=      5-min Rain = 0
KWT1 131508Z 23006KT M00/M02 A3012 RMK A01 T10021015  RH  091%=      5-min Rain = 0
KWT1 131509Z 23006KT M00/M02 A3012 RMK A01 T10021016  RH  090%=      5-min Rain = 0
KWT1 131510Z 23007KT M00/M02 A3013 RMK A01 T10011016  RH  090%=      5-min Rain = 0
KWT1 131511Z 24005KT M00/M02 A3013 RMK A01 T10011017  RH  089%=      5-min Rain = 0
KWT1 131512Z 23005KT 00/M02 A3013 RMK A01 T00011016  RH  089%=      5-min Rain = 0
KWT1 131513Z 23006KT 00/M02 A3013 RMK A01 T00021016  RH  088%=      5-min Rain = 0
KWT1 131514Z 23005KT 00/M02 A3013 RMK A01 T00021016  RH  088%=      5-min Rain = 0
KWT1 131515Z 23005KT 00/M02 A3013 RMK A01 T00031016  RH  087%=      5-min Rain = 0
KWT1 131516Z 23005KT 00/M02 A3013 RMK A01 T00031017  RH  087%=      5-min Rain = 0
KWT1 131517Z 23007KT 00/M02 A3013 RMK A01 T00041016  RH  086%=      5-min Rain = 0
KWT1 131518Z 23007KT 01/M02 A3013 RMK A01 T00051016  RH  086%=      5-min Rain = 0
KWT1 131519Z 23006KT 01/M02 A3013 RMK A01 T00051018  RH  084%=      5-min Rain = 0
KWT1 131520Z 23005KT 01/M02 A3014 RMK A01 T00051018  RH  084%=      5-min Rain = 0
KWT1 131521Z 24006KT 01/M02 A3014 RMK A01 T00061017  RH  085%=      5-min Rain = 0
KWT1 131522Z 23006KT 01/M02 A3014 RMK A01 T00061018  RH  084%=      5-min Rain = 0
KWT1 131523Z 23005KT 01/M02 A3013 RMK A01 T00061017  RH  085%=      5-min Rain = 0
KWT1 131524Z 23007KT 01/M02 A3013 RMK A01 T00071015  RH  086%=      5-min Rain = 0
KWT1 131525Z 24006KT 01/M01 A3013 RMK A01 T00071014  RH  085%=      5-min Rain = 0
KWT1 131526Z 24007KT 01/M01 A3013 RMK A01 T00081014  RH  085%=      5-min Rain = 0
KWT1 131527Z 23007KT 01/M01 A3013 RMK A01 T00081014  RH  085%=      5-min Rain = 0
KWT1 131528Z 23008KT 01/M02 A3013 RMK A01 T00081015  RH  085%=      5-min Rain = 0
KWT1 131529Z 24007KT 01/M02 A3013 RMK A01 T00071016  RH  085%=      5-min Rain = 0
KWT1 131530Z 23006KT 01/M02 A3013 RMK A01 T00071016  RH  085%=      5-min Rain = 0
KWT1 131531Z 23009KT 01/M02 A3013 RMK A01 T00071016  RH  085%=      5-min Rain = 0
KWT1 131532Z 23008KT 01/M02 A3013 RMK A01 T00061017  RH  085%=      5-min Rain = 0
KWT1 131533Z 23008KT 01/M02 A3013 RMK A01 T00061017  RH  085%=      5-min Rain = 0
KWT1 131534Z 22009KT 01/M02 A3013 RMK A01 T00061016  RH  085%=      5-min Rain = 0
KWT1 131535Z 23009KT 01/M02 A3013 RMK A01 T00051016  RH  086%=      5-min Rain = 0
KWT1 131536Z 22008KT 01/M02 A3013 RMK A01 T00051016  RH  086%=      5-min Rain = 0
KWT1 131537Z 22007KT 01/M02 A3013 RMK A01 T00051015  RH  086%=      5-min Rain = 0
KWT1 131538Z 23007KT 01/M01 A3013 RMK A01 T00061014  RH  087%=      5-min Rain = 0
KWT1 131539Z 23008KT 01/M01 A3013 RMK A01 T00071012  RH  087%=      5-min Rain = 0
KWT1 131540Z 23008KT 01/M01 A3013 RMK A01 T00071014  RH  086%=      5-min Rain = 0
KWT1 131541Z 22007KT 01/M01 A3013 RMK A01 T00081014  RH  085%=      5-min Rain = 0
KWT1 131542Z 23009KT 01/M01 A3013 RMK A01 T00091014  RH  085%=      5-min Rain = 0
KWT1 131543Z 23009KT 01/M01 A3013 RMK A01 T00091014  RH  084%=      5-min Rain = 0
KWT1 131544Z 22008KT 01/M01 A3013 RMK A01 T00091014  RH  084%=      5-min Rain = 0
KWT1 131545Z 22007KT 01/M01 A3013 RMK A01 T00101013  RH  085%=      5-min Rain = 0
KWT1 131546Z 23006KT 01/M01 A3013 RMK A01 T00111012  RH  085%=      5-min Rain = 0
KWT1 131547Z 23008KT 01/M01 A3013 RMK A01 T00121011  RH  085%=      5-min Rain = 0
KWT1 131548Z 22008KT 01/M01 A3013 RMK A01 T00121011  RH  084%=      5-min Rain = 0
KWT1 131549Z 23009KT 01/M01 A3013 RMK A01 T00121012  RH  084%=      5-min Rain = 0
KWT1 131550Z 23009KT 01/M01 A3013 RMK A01 T00121013  RH  083%=      5-min Rain = 0
KWT1 131551Z 23007KT 01/M01 A3013 RMK A01 T00121014  RH  083%=      5-min Rain = 0
KWT1 131552Z 23008KT 01/M01 A3013 RMK A01 T00131012  RH  084%=      5-min Rain = 0
KWT1 131553Z 23009KT 01/M01 A3013 RMK A01 T00141012  RH  083%=      5-min Rain = 0
KWT1 131554Z 23008KT 01/M01 A3013 RMK A01 T00141012  RH  083%=      5-min Rain = 0
KWT1 131555Z 22009KT 01/M01 A3013 RMK A01 T00141011  RH  083%=      5-min Rain = 0
KWT1 131556Z 23010KT 01/M01 A3013 RMK A01 T00141014  RH  082%=      5-min Rain = 0
KWT1 131557Z 23007KT 01/M02 A3013 RMK A01 T00131015  RH  082%=      5-min Rain = 0
KWT1 131558Z 24009KT 01/M01 A3013 RMK A01 T00141013  RH  082%=      5-min Rain = 0
KWT1 131559Z 23008KT 01/M01 A3013 RMK A01 T00141013  RH  082%=      5-min Rain = 0
KWT1 131600Z 23007KT 01/M01 A3014 RMK A01 T00141011  RH  083%=      5-min Rain = 0
KWT1 131601Z 23008KT 02/M01 A3014 RMK A01 T00161008  RH  084%=      5-min Rain = 0
KWT1 131602Z 22007KT 02/M01 A3014 RMK A01 T00161008  RH  084%=      5-min Rain = 0
KWT1 131603Z 22007KT 02/M01 A3014 RMK A01 T00181006  RH  084%=      5-min Rain = 0
KWT1 131604Z 23006KT 02/M01 A3014 RMK A01 T00191007  RH  083%=      5-min Rain = 0
KWT1 131605Z 23006KT 02/M01 A3014 RMK A01 T00201007  RH  083%=      5-min Rain = 0
KWT1 131606Z 22007KT 02/M01 A3014 RMK A01 T00201007  RH  082%=      5-min Rain = 0
KWT1 131607Z 22009KT 02/M01 A3014 RMK A01 T00201007  RH  082%=      5-min Rain = 0
KWT1 131608Z 22009KT 02/M01 A3014 RMK A01 T00181011  RH  081%=      5-min Rain = 0
KWT1 131609Z 22008KT 02/M01 A3014 RMK A01 T00181011  RH  081%=      5-min Rain = 0
KWT1 131610Z 22009KT 02/M01 A3014 RMK A01 T00181011  RH  081%=      5-min Rain = 0
KWT1 131611Z 23008KT 02/M01 A3014 RMK A01 T00191010  RH  082%=      5-min Rain = 0
KWT1 131612Z 22008KT 02/M01 A3014 RMK A01 T00191010  RH  082%=      5-min Rain = 0
KWT1 131613Z 22009KT 02/M01 A3014 RMK A01 T00191009  RH  082%=      5-min Rain = 0
KWT1 131614Z 21007KT 02/M01 A3014 RMK A01 T00191008  RH  082%=      5-min Rain = 0
KWT1 131615Z 22007KT 02/M00 A3014 RMK A01 T00201004  RH  084%=      5-min Rain = 0
KWT1 131616Z 22008KT 02/M00 A3014 RMK A01 T00231001  RH  084%=      5-min Rain = 0
KWT1 131617Z 22009KT 02/M01 A3014 RMK A01 T00231005  RH  082%=      5-min Rain = 0
KWT1 131618Z 22007KT 02/M01 A3014 RMK A01 T00221006  RH  081%=      5-min Rain = 0
KWT1 131619Z 23010KT 02/M01 A3014 RMK A01 T00241005  RH  082%=      5-min Rain = 0
KWT1 131620Z 22010KT 02/M01 A3014 RMK A01 T00241009  RH  079%=      5-min Rain = 0
KWT1 131621Z 23011KT 02/M01 A3014 RMK A01 T00231012  RH  078%=      5-min Rain = 0
KWT1 131622Z 24008KT 02/M01 A3014 RMK A01 T00231011  RH  078%=      5-min Rain = 0
KWT1 131623Z 24010KT 02/M01 A3014 RMK A01 T00241008  RH  079%=      5-min Rain = 0
KWT1 131624Z 23010KT 03/M01 A3014 RMK A01 T00251009  RH  078%=      5-min Rain = 0
KWT1 131625Z 24010KT 03/M01 A3014 RMK A01 T00261010  RH  077%=      5-min Rain = 0
KWT1 131626Z 23010KT 03/M01 A3014 RMK A01 T00271010  RH  077%=      5-min Rain = 0
KWT1 131627Z 24010KT 03/M01 A3014 RMK A01 T00271009  RH  077%=      5-min Rain = 0
KWT1 131628Z 24011KT 03/M01 A3014 RMK A01 T00281010  RH  076%=      5-min Rain = 0
KWT1 131629Z 23010KT 03/M01 A3014 RMK A01 T00281011  RH  076%=      5-min Rain = 0
KWT1 131630Z 24010KT 03/M01 A3014 RMK A01 T00271012  RH  075%=      5-min Rain = 0
KWT1 131631Z 23009KT 03/M01 A3014 RMK A01 T00281011  RH  076%=      5-min Rain = 0
KWT1 131632Z 23010KT 03/M01 A3014 RMK A01 T00291008  RH  077%=      5-min Rain = 0
KWT1 131633Z 23010KT 03/M01 A3013 RMK A01 T00291009  RH  076%=      5-min Rain = 0
KWT1 131634Z 23008KT 03/M01 A3013 RMK A01 T00291008  RH  077%=      5-min Rain = 0
KWT1 131635Z 23010KT 03/M01 A3013 RMK A01 T00291006  RH  078%=      5-min Rain = 0
KWT1 131636Z 22011KT 03/M01 A3013 RMK A01 T00301006  RH  077%=      5-min Rain = 0
KWT1 131637Z 22009KT 03/M01 A3013 RMK A01 T00311007  RH  076%=      5-min Rain = 0
KWT1 131638Z 23008KT 03/M01 A3013 RMK A01 T00301008  RH  076%=      5-min Rain = 0
KWT1 131639Z 23009KT 03/M01 A3013 RMK A01 T00311005  RH  077%=      5-min Rain = 0
KWT1 131640Z 23006KT 03/M00 A3013 RMK A01 T00321004  RH  077%=      5-min Rain = 0
KWT1 131641Z 23008KT 03/M00 A3013 RMK A01 T00341001  RH  078%=      5-min Rain = 0
KWT1 131642Z 23010KT 04/M00 A3013 RMK A01 T00351004  RH  076%=      5-min Rain = 0
KWT1 131643Z 22008KT 03/M01 A3013 RMK A01 T00341006  RH  075%=      5-min Rain = 0
KWT1 131644Z 23009KT 03/M01 A3013 RMK A01 T00341006  RH  075%=      5-min Rain = 0
KWT1 131645Z 22009KT 03/M01 A3013 RMK A01 T00341006  RH  075%=      5-min Rain = 0
KWT1 131646Z 22010KT 04/M01 A3013 RMK A01 T00351007  RH  074%=      5-min Rain = 0
KWT1 131647Z 23009KT 04/M01 A3013 RMK A01 T00351009  RH  073%=      5-min Rain = 0
KWT1 131648Z 22009KT 03/M01 A3013 RMK A01 T00341009  RH  073%=      5-min Rain = 0
KWT1 131649Z 22009KT 03/M01 A3013 RMK A01 T00331008  RH  074%=      5-min Rain = 0
KWT1 131650Z 22010KT 03/M01 A3013 RMK A01 T00341007  RH  075%=      5-min Rain = 0
KWT1 131651Z 22009KT 03/M01 A3013 RMK A01 T00341009  RH  074%=      5-min Rain = 0
KWT1 131652Z 22009KT 04/M01 A3013 RMK A01 T00351007  RH  074%=      5-min Rain = 0
KWT1 131653Z 22009KT 04/M01 A3013 RMK A01 T00351005  RH  075%=      5-min Rain = 0
KWT1 131654Z 23009KT 04/M00 A3013 RMK A01 T00361004  RH  075%=      5-min Rain = 0
KWT1 131655Z 22010KT 04/M00 A3013 RMK A01 T00391003  RH  074%=      5-min Rain = 0
KWT1 131656Z 22009KT 04/M01 A3013 RMK A01 T00391005  RH  073%=      5-min Rain = 0
KWT1 131657Z 23010KT 04/M00 A3013 RMK A01 T00401004  RH  073%=      5-min Rain = 0
KWT1 131658Z 23011KT 04/M00 A3013 RMK A01 T00421004  RH  072%=      5-min Rain = 0
KWT1 131659Z 23011KT 04/M01 A3013 RMK A01 T00411006  RH  072%=      5-min Rain = 0
KWT1 131700Z 23008KT 04/M01 A3013 RMK A01 T00411005  RH  072%=      5-min Rain = 0
KWT1 131701Z 23009KT 04/M00 A3013 RMK A01 T00411004  RH  072%=      5-min Rain = 0
KWT1 131702Z 23009KT 04/M00 A3013 RMK A01 T00421003  RH  073%=      5-min Rain = 0
KWT1 131703Z 24010KT 04/M00 A3013 RMK A01 T00431002  RH  073%=      5-min Rain = 0
KWT1 131704Z 23010KT 04/M00 A3013 RMK A01 T00441002  RH  072%=      5-min Rain = 0
KWT1 131705Z 24010KT 05/M00 A3013 RMK A01 T00451003  RH  071%=      5-min Rain = 0
KWT1 131706Z 22009KT 05/M00 A3012 RMK A01 T00451002  RH  071%=      5-min Rain = 0
KWT1 131707Z 23010KT 05/M00 A3012 RMK A01 T00471002  RH  071%=      5-min Rain = 0
KWT1 131708Z 23011KT 05/M00 A3012 RMK A01 T00481003  RH  070%=      5-min Rain = 0
KWT1 131709Z 23011KT 05/M01 A3012 RMK A01 T00471006  RH  069%=      5-min Rain = 0
KWT1 131710Z 23010KT 05/M01 A3012 RMK A01 T00451005  RH  070%=      5-min Rain = 0
KWT1 131711Z 22009KT 05/M00 A3012 RMK A01 T00451004  RH  071%=      5-min Rain = 0
KWT1 131712Z 23012KT 05/M00 A3012 RMK A01 T00461004  RH  070%=      5-min Rain = 0
KWT1 131713Z 24012KT 05/M01 A3012 RMK A01 T00461006  RH  069%=      5-min Rain = 0
KWT1 131714Z 24011KT 05/M01 A3012 RMK A01 T00461007  RH  069%=      5-min Rain = 0
KWT1 131715Z 24009KT 05/M01 A3012 RMK A01 T00461006  RH  069%=      5-min Rain = 0
KWT1 131716Z 23011KT 05/M01 A3012 RMK A01 T00471005  RH  069%=      5-min Rain = 0
KWT1 131717Z 24009KT 05/M01 A3012 RMK A01 T00471005  RH  069%=      5-min Rain = 0
KWT1 131718Z 23009KT 05/M00 A3012 RMK A01 T00481002  RH  070%=      5-min Rain = 0
KWT1 131719Z 23007KT 05/00 A3012 RMK A01 T00510002  RH  071%=      5-min Rain = 0
KWT1 131720Z 22011KT 05/00 A3012 RMK A01 T00530001  RH  069%=      5-min Rain = 0
KWT1 131721Z 23011KT 05/M00 A3012 RMK A01 T00531002  RH  068%=      5-min Rain = 0
KWT1 131722Z 23007KT 05/M00 A3012 RMK A01 T00521003  RH  068%=      5-min Rain = 0
KWT1 131723Z 23008KT 05/00 A3012 RMK A01 T00530002  RH  070%=      5-min Rain = 0
KWT1 131724Z 22010KT 06/00 A3012 RMK A01 T00550001  RH  068%=      5-min Rain = 0
KWT1 131725Z 22011KT 06/M00 A3011 RMK A01 T00551002  RH  067%=      5-min Rain = 0
KWT1 131726Z 22010KT 06/M00 A3011 RMK A01 T00551004  RH  066%=      5-min Rain = 0
KWT1 131727Z 23011KT 06/M00 A3012 RMK A01 T00561001  RH  067%=      5-min Rain = 0
KWT1 131728Z 23009KT 06/M00 A3012 RMK A01 T00571002  RH  066%=      5-min Rain = 0
KWT1 131729Z 22011KT 06/M00 A3011 RMK A01 T00581003  RH  065%=      5-min Rain = 0
KWT1 131730Z 23011KT 06/M00 A3011 RMK A01 T00591002  RH  065%=      5-min Rain = 0
KWT1 131731Z 22011KT 06/M00 A3011 RMK A01 T00601003  RH  064%=      5-min Rain = 0
KWT1 131732Z 23012KT 06/M00 A3011 RMK A01 T00601004  RH  063%=      5-min Rain = 0
KWT1 131733Z 23010KT 06/M00 A3011 RMK A01 T00611003  RH  064%=      5-min Rain = 0
KWT1 131734Z 23011KT 06/M00 A3011 RMK A01 T00621002  RH  063%=      5-min Rain = 0
KWT1 131735Z 22011KT 06/M00 A3011 RMK A01 T00621003  RH  063%=      5-min Rain = 0
KWT1 131736Z 22010KT 06/M00 A3011 RMK A01 T00631003  RH  062%=      5-min Rain = 0
KWT1 131737Z 22012KT 06/M01 A3011 RMK A01 T00641006  RH  061%=      5-min Rain = 0
KWT1 131738Z 23010KT 06/M01 A3011 RMK A01 T00641006  RH  061%=      5-min Rain = 0
KWT1 131739Z 24010KT 07/M00 A3011 RMK A01 T00651004  RH  061%=      5-min Rain = 0
KWT1 131740Z 23009KT 07/M00 A3011 RMK A01 T00671004  RH  060%=      5-min Rain = 0
KWT1 131741Z 24011KT 07/M00 A3011 RMK A01 T00661004  RH  061%=      5-min Rain = 0
KWT1 131742Z 24011KT 07/M01 A3011 RMK A01 T00661006  RH  060%=      5-min Rain = 0
KWT1 131743Z 23010KT 07/M01 A3011 RMK A01 T00651007  RH  060%=      5-min Rain = 0
KWT1 131744Z 24011KT 06/M01 A3011 RMK A01 T00641006  RH  061%=      5-min Rain = 0
KWT1 131745Z 23010KT 06/M01 A3011 RMK A01 T00631006  RH  061%=      5-min Rain = 0
KWT1 131746Z 24010KT 06/M01 A3011 RMK A01 T00631005  RH  062%=      5-min Rain = 0
KWT1 131747Z 24012KT 06/M01 A3011 RMK A01 T00631006  RH  061%=      5-min Rain = 0
KWT1 131748Z 25011KT 06/M01 A3011 RMK A01 T00631008  RH  060%=      5-min Rain = 0
KWT1 131749Z 24011KT 06/M01 A301 RMK A01 T00631007  RH  061%=      5-min Rain = 0
KWT1 131750Z 24011KT 06/M01 A301 RMK A01 T00631006  RH  061%=      5-min Rain = 0
KWT1 131751Z 24010KT 06/M01 A301 RMK A01 T00631008  RH  061%=      5-min Rain = 0
KWT1 131752Z 24010KT 06/M01 A301 RMK A01 T00621008  RH  061%=      5-min Rain = 0
KWT1 131753Z 24008KT 06/M01 A301 RMK A01 T00621008  RH  061%=      5-min Rain = 0
KWT1 131754Z 24007KT 06/M01 A301 RMK A01 T00631005  RH  062%=      5-min Rain = 0
KWT1 131755Z 25007KT 06/M01 A301 RMK A01 T00641005  RH  061%=      5-min Rain = 0
KWT1 131756Z 25009KT 07/M00 A301 RMK A01 T00651003  RH  061%=      5-min Rain = 0
KWT1 131757Z 25008KT 07/M00 A301 RMK A01 T00671001  RH  062%=      5-min Rain = 0
KWT1 131758Z 25009KT 07/M00 A301 RMK A01 T00691001  RH  061%=      5-min Rain = 0
KWT1 131759Z 24008KT 07/M00 A301 RMK A01 T00691002  RH  060%=      5-min Rain = 0
KWT1 131800Z 24009KT 07/00 A301 RMK A01 T00710001  RH  061%=      5-min Rain = 0
KWT1 131801Z 24009KT 07/00 A3009 RMK A01 T00730001  RH  060%=      5-min Rain = 0
KWT1 131802Z 24009KT 07/M00 A3009 RMK A01 T00741002  RH  059%=      5-min Rain = 0
KWT1 131803Z 23008KT 07/M00 A3009 RMK A01 T00741001  RH  059%=      5-min Rain = 0
KWT1 131804Z 23008KT 08/M00 A3009 RMK A01 T00751001  RH  059%=      5-min Rain = 0
KWT1 131805Z 22008KT 08/01 A3009 RMK A01 T00780005  RH  060%=      5-min Rain = 0
KWT1 131806Z 22010KT 08/00 A3008 RMK A01 T00810004  RH  058%=      5-min Rain = 0
KWT1 131807Z 21009KT 08/00 A3008 RMK A01 T00810003  RH  058%=      5-min Rain = 0
KWT1 131808Z 23009KT 08/00 A3008 RMK A01 T00820004  RH  058%=      5-min Rain = 0
KWT1 131809Z 23011KT 08/00 A3008 RMK A01 T00830003  RH  057%=      5-min Rain = 0
KWT1 131810Z 23011KT 08/00 A3007 RMK A01 T00810000  RH  057%=      5-min Rain = 0
KWT1 131811Z 22011KT 08/00 A3007 RMK A01 T00810000  RH  057%=      5-min Rain = 0
KWT1 131812Z 22010KT 08/00 A3007 RMK A01 T00820003  RH  058%=      5-min Rain = 0
KWT1 131813Z 23011KT 08/00 A3007 RMK A01 T00820000  RH  056%=      5-min Rain = 0
KWT1 131814Z 22010KT 08/00 A3007 RMK A01 T00820001  RH  057%=      5-min Rain = 0
KWT1 131815Z 22011KT 08/00 A3007 RMK A01 T00820003  RH  058%=      5-min Rain = 0
KWT1 131816Z 22014KT 08/00 A3007 RMK A01 T00830001  RH  056%=      5-min Rain = 0
KWT1 131817Z 23011KT 08/M00 A3007 RMK A01 T00821004  RH  055%=      5-min Rain = 0
KWT1 131818Z 24011KT 08/M00 A3007 RMK A01 T00831001  RH  055%=      5-min Rain = 0
KWT1 131819Z 22010KT 09/00 A3007 RMK A01 T00850002  RH  056%=      5-min Rain = 0
KWT1 131820Z 22011KT 09/00 A3007 RMK A01 T00870002  RH  055%=      5-min Rain = 0
KWT1 131821Z 22011KT 09/00 A3007 RMK A01 T00870000  RH  055%=      5-min Rain = 0
KWT1 131822Z 22011KT 09/00 A3007 RMK A01 T00870002  RH  055%=      5-min Rain = 0
KWT1 131823Z 22010KT 09/00 A3007 RMK A01 T00870002  RH  055%=      5-min Rain = 0
KWT1 131824Z 22011KT 09/00 A3007 RMK A01 T00870001  RH  055%=      5-min Rain = 0
KWT1 131825Z 23012KT 09/00 A3007 RMK A01 T00870001  RH  055%=      5-min Rain = 0
KWT1 131826Z 24013KT 09/M00 A3007 RMK A01 T00871002  RH  054%=      5-min Rain = 0
KWT1 131827Z 22011KT 09/M00 A3007 RMK A01 T00861002  RH  054%=      5-min Rain = 0
KWT1 131828Z 23013KT 09/M00 A3007 RMK A01 T00861003  RH  054%=      5-min Rain = 0
KWT1 131829Z 22012KT 09/M00 A3006 RMK A01 T00871001  RH  054%=      5-min Rain = 0
KWT1 131830Z 22012KT 09/00 A3006 RMK A01 T00880001  RH  054%=      5-min Rain = 0
KWT1 131831Z 22012KT 09/00 A3006 RMK A01 T00900003  RH  054%=      5-min Rain = 0
KWT1 131832Z 22011KT 09/00 A3006 RMK A01 T00910003  RH  054%=      5-min Rain = 0
KWT1 131833Z 22013KT 09/01 A3006 RMK A01 T00930005  RH  054%=      5-min Rain = 0
KWT1 131834Z 23012KT 09/00 A3006 RMK A01 T00930002  RH  053%=      5-min Rain = 0
KWT1 131835Z 23011KT 09/00 A3006 RMK A01 T00930003  RH  053%=      5-min Rain = 0
KWT1 131836Z 23012KT 09/00 A3006 RMK A01 T00940004  RH  053%=      5-min Rain = 0
KWT1 131837Z 23012KT 09/00 A3006 RMK A01 T00940002  RH  052%=      5-min Rain = 0
KWT1 131838Z 23012KT 09/00 A3005 RMK A01 T00940002  RH  052%=      5-min Rain = 0
KWT1 131839Z 24012KT 10/00 A3005 RMK A01 T00950003  RH  053%=      5-min Rain = 0
KWT1 131840Z 24011KT 10/00 A3005 RMK A01 T00950003  RH  053%=      5-min Rain = 0
KWT1 131841Z 23012KT 10/00 A3005 RMK A01 T00970003  RH  052%=      5-min Rain = 0
KWT1 131842Z 23012KT 10/M00 A3005 RMK A01 T00981001  RH  050%=      5-min Rain = 0
KWT1 131843Z 23013KT 10/M00 A3005 RMK A01 T00991002  RH  050%=      5-min Rain = 0
KWT1 131844Z 23015KT 10/M00 A3005 RMK A01 T00991002  RH  049%=      5-min Rain = 0
KWT1 131845Z 23014KT 10/M01 A3004 RMK A01 T00981005  RH  049%=      5-min Rain = 0
KWT1 131846Z 23015KT 10/M00 A3004 RMK A01 T00981003  RH  049%=      5-min Rain = 0
KWT1 131847Z 24012KT 10/M00 A3004 RMK A01 T00981002  RH  050%=      5-min Rain = 0
KWT1 131848Z 25015KT 10/M00 A3004 RMK A01 T01001002  RH  049%=      5-min Rain = 0
KWT1 131849Z 25015KT 10/M01 A3004 RMK A01 T00981008  RH  047%=      5-min Rain = 0
KWT1 131850Z 24015KT 10/M01 A3004 RMK A01 T00971009  RH  048%=      5-min Rain = 0
KWT1 131851Z 24015KT 10/M01 A3004 RMK A01 T00971006  RH  049%=      5-min Rain = 0
KWT1 131852Z 24015KT 10/M01 A3004 RMK A01 T00981005  RH  048%=      5-min Rain = 0
KWT1 131853Z 24015KT 10/M01 A3004 RMK A01 T00991006  RH  048%=      5-min Rain = 0
KWT1 131854Z 24015KT 10/M01 A3004 RMK A01 T00981007  RH  048%=      5-min Rain = 0
KWT1 131855Z 23014KT 10/M01 A3004 RMK A01 T00991007  RH  048%=      5-min Rain = 0
KWT1 131856Z 23013KT 10/M01 A3004 RMK A01 T01011005  RH  048%=      5-min Rain = 0
KWT1 131857Z 24014KT 10/M01 A3004 RMK A01 T01021006  RH  047%=      5-min Rain = 0
KWT1 131858Z 23015KT 10/M01 A3004 RMK A01 T01021007  RH  047%=      5-min Rain = 0
KWT1 131859Z 24012KT 10/M01 A3004 RMK A01 T01021005  RH  048%=      5-min Rain = 0
KWT1 131900Z 24013G18KT 10/M00 A3004 RMK A01 T01021002  RH  048%=      5-min Rain = 0
KWT1 131901Z 24015KT 10/M00 A3004 RMK A01 T01031001  RH  048%=      5-min Rain = 0
KWT1 131902Z 24012KT 10/M00 A3004 RMK A01 T01021001  RH  049%=      5-min Rain = 0
KWT1 131903Z 24011KT 10/00 A3004 RMK A01 T01010002  RH  050%=      5-min Rain = 0
KWT1 131904Z 25013KT 10/01 A3003 RMK A01 T01020006  RH  051%=      5-min Rain = 0
KWT1 131905Z 25014KT 10/00 A3003 RMK A01 T01030002  RH  050%=      5-min Rain = 0
KWT1 131906Z 25014KT 10/M00 A3003 RMK A01 T01021001  RH  049%=      5-min Rain = 0
KWT1 131907Z 24013KT 10/M00 A3003 RMK A01 T01011001  RH  049%=      5-min Rain = 0
KWT1 131908Z 23015KT 10/M00 A3003 RMK A01 T01031001  RH  049%=      5-min Rain = 0
KWT1 131909Z 24015KT 10/M00 A3003 RMK A01 T01031003  RH  048%=      5-min Rain = 0
KWT1 131910Z 24015KT 10/M00 A3003 RMK A01 T01021004  RH  048%=      5-min Rain = 0
KWT1 131911Z 24014KT 10/M00 A3003 RMK A01 T01021004  RH  048%=      5-min Rain = 0
KWT1 131912Z 25014KT 10/M00 A3003 RMK A01 T01021001  RH  049%=      5-min Rain = 0
KWT1 131913Z 25014KT 10/M00 A3003 RMK A01 T01021001  RH  049%=      5-min Rain = 0
KWT1 131914Z 25014KT 10/00 A3003 RMK A01 T01020001  RH  049%=      5-min Rain = 0
KWT1 131915Z 24015KT 10/M00 A3002 RMK A01 T01031002  RH  048%=      5-min Rain = 0
KWT1 131916Z 24013KT 10/M00 A3002 RMK A01 T01031003  RH  048%=      5-min Rain = 0
KWT1 131917Z 24013KT 10/M00 A3002 RMK A01 T01031001  RH  048%=      5-min Rain = 0
KWT1 131918Z 25014KT 10/M00 A3002 RMK A01 T01041001  RH  048%=      5-min Rain = 0
KWT1 131919Z 24014KT 10/M00 A3002 RMK A01 T01041002  RH  048%=      5-min Rain = 0
KWT1 131920Z 24014KT 10/M00 A3002 RMK A01 T01041001  RH  048%=      5-min Rain = 0
KWT1 131921Z 24014KT 10/M00 A3002 RMK A01 T01041002  RH  048%=      5-min Rain = 0
KWT1 131922Z 24013KT 10/00 A3002 RMK A01 T01040002  RH  049%=      5-min Rain = 0
KWT1 131923Z 23013KT 11/00 A3002 RMK A01 T01050003  RH  049%=      5-min Rain = 0
KWT1 131924Z 23013KT 11/00 A3002 RMK A01 T01050004  RH  050%=      5-min Rain = 0
KWT1 131925Z 25011KT 11/01 A3002 RMK A01 T01050007  RH  051%=      5-min Rain = 0
KWT1 131926Z 25010KT 11/01 A3002 RMK A01 T01070010  RH  051%=      5-min Rain = 0
KWT1 131927Z 23012KT 11/01 A3002 RMK A01 T01080009  RH  050%=      5-min Rain = 0
KWT1 131928Z 24011KT 11/01 A3001 RMK A01 T01090007  RH  049%=      5-min Rain = 0
KWT1 131929Z 22013KT 11/01 A3001 RMK A01 T01110010  RH  050%=      5-min Rain = 0
KWT1 131930Z 23013KT 11/01 A3001 RMK A01 T01100008  RH  049%=      5-min Rain = 0
KWT1 131931Z 23013KT 11/01 A3001 RMK A01 T01090008  RH  049%=      5-min Rain = 0
KWT1 131932Z 23012KT 11/01 A3001 RMK A01 T01090007  RH  049%=      5-min Rain = 0
KWT1 131933Z 23012KT 11/01 A3001 RMK A01 T01110010  RH  050%=      5-min Rain = 0
KWT1 131934Z 24012KT 11/01 A3001 RMK A01 T01110009  RH  049%=      5-min Rain = 0
KWT1 131935Z 25012KT 11/01 A3001 RMK A01 T01130013  RH  050%=      5-min Rain = 0
KWT1 131936Z 25013KT 11/01 A3001 RMK A01 T01140010  RH  049%=      5-min Rain = 0
KWT1 131937Z 24014KT 11/01 A3001 RMK A01 T01120007  RH  048%=      5-min Rain = 0
KWT1 131938Z 23012G17KT 11/01 A3001 RMK A01 T01130011  RH  050%=      5-min Rain = 0
KWT1 131939Z 23015KT 11/01 A30 RMK A01 T01140010  RH  049%=      5-min Rain = 0
KWT1 131940Z 24014KT 11/01 A30 RMK A01 T01120008  RH  049%=      5-min Rain = 0
KWT1 131941Z 23015KT 11/01 A30 RMK A01 T01140010  RH  049%=      5-min Rain = 0
KWT1 131942Z 23014KT 11/01 A30 RMK A01 T01140008  RH  048%=      5-min Rain = 0
KWT1 131943Z 24012KT 11/01 A30 RMK A01 T01130006  RH  048%=      5-min Rain = 0
KWT1 131944Z 25013KT 11/01 A30 RMK A01 T01140009  RH  048%=      5-min Rain = 0
KWT1 131945Z 23014KT 12/01 A30 RMK A01 T01160010  RH  048%=      5-min Rain = 0
KWT1 131946Z 24013KT 12/01 A30 RMK A01 T01150009  RH  048%=      5-min Rain = 0
KWT1 131947Z 24012KT 11/01 A30 RMK A01 T01140008  RH  048%=      5-min Rain = 0
KWT1 131948Z 26012KT 11/01 A30 RMK A01 T01140011  RH  049%=      5-min Rain = 0
KWT1 131949Z 26015KT 12/01 A30 RMK A01 T01150013  RH  050%=      5-min Rain = 0
KWT1 131950Z 25013KT 11/01 A30 RMK A01 T01140012  RH  049%=      5-min Rain = 0
KWT1 131951Z 25011KT 11/02 A30 RMK A01 T01140015  RH  050%=      5-min Rain = 0
KWT1 131952Z 24012KT 12/02 A30 RMK A01 T01160017  RH  051%=      5-min Rain = 0
KWT1 131953Z 24013KT 12/01 A30 RMK A01 T01170012  RH  049%=      5-min Rain = 0
KWT1 131954Z 23013KT 12/01 A30 RMK A01 T01170009  RH  048%=      5-min Rain = 0
KWT1 131955Z 22015KT 12/01 A2999 RMK A01 T01180011  RH  048%=      5-min Rain = 0
KWT1 131956Z 23014KT 12/01 A2999 RMK A01 T01190009  RH  047%=      5-min Rain = 0
KWT1 131957Z 23013KT 12/01 A2999 RMK A01 T01190009  RH  047%=      5-min Rain = 0
KWT1 131958Z 23013KT 12/01 A2999 RMK A01 T01190008  RH  046%=      5-min Rain = 0
KWT1 131959Z 23011KT 12/01 A2999 RMK A01 T01190008  RH  046%=      5-min Rain = 0
KWT1 132000Z 23012KT 12/01 A2999 RMK A01 T01220008  RH  046%=      5-min Rain = 0
KWT1 132001Z 23015KT 12/01 A2999 RMK A01 T01230006  RH  045%=      5-min Rain = 0
KWT1 132002Z 24015KT 12/00 A2999 RMK A01 T01210001  RH  044%=      5-min Rain = 0
KWT1 132003Z 23014KT 12/00 A2999 RMK A01 T01200001  RH  044%=      5-min Rain = 0
KWT1 132004Z 23013KT 12/00 A2999 RMK A01 T01210001  RH  044%=      5-min Rain = 0
KWT1 132005Z 22011KT 12/00 A2999 RMK A01 T01200003  RH  044%=      5-min Rain = 0
KWT1 132006Z 22009G14KT 12/01 A2999 RMK A01 T01220008  RH  046%=      5-min Rain = 0
KWT1 132007Z 23013KT 12/01 A2999 RMK A01 T01230011  RH  046%=      5-min Rain = 0
KWT1 132008Z 23013KT 12/01 A2999 RMK A01 T01240007  RH  045%=      5-min Rain = 0
KWT1 132009Z 23015KT 12/01 A2999 RMK A01 T01240011  RH  046%=      5-min Rain = 0
KWT1 132010Z 23012G17KT 13/01 A2999 RMK A01 T01250008  RH  045%=      5-min Rain = 0
KWT1 132011Z 23015KT 13/01 A2999 RMK A01 T01250007  RH  044%=      5-min Rain = 0
KWT1 132012Z 23015KT 12/01 A2999 RMK A01 T01230006  RH  045%=      5-min Rain = 0
KWT1 132013Z 25014KT 12/01 A2999 RMK A01 T01220006  RH  045%=      5-min Rain = 0
KWT1 132014Z 24014KT 12/01 A2999 RMK A01 T01230006  RH  044%=      5-min Rain = 0
KWT1 132015Z 24014KT 12/01 A2999 RMK A01 T01230005  RH  044%=      5-min Rain = 0
KWT1 132016Z 24014KT 12/00 A2999 RMK A01 T01230003  RH  044%=      5-min Rain = 0
KWT1 132017Z 23014KT 12/00 A2999 RMK A01 T01220002  RH  044%=      5-min Rain = 0
KWT1 132018Z 23013KT 12/01 A2999 RMK A01 T01240005  RH  044%=      5-min Rain = 0
KWT1 132019Z 23015KT 13/01 A2999 RMK A01 T01260008  RH  045%=      5-min Rain = 0
KWT1 132020Z 23014KT 13/01 A2999 RMK A01 T01260006  RH  044%=      5-min Rain = 0
KWT1 132021Z 24015KT 13/00 A2999 RMK A01 T01250004  RH  043%=      5-min Rain = 0
KWT1 132022Z 24015KT 12/00 A2998 RMK A01 T01240004  RH  044%=      5-min Rain = 0
KWT1 132023Z 24016KT 12/00 A2999 RMK A01 T01240003  RH  043%=      5-min Rain = 0
KWT1 132024Z 23016KT 12/00 A2998 RMK A01 T01240000  RH  043%=      5-min Rain = 0
KWT1 132025Z 22014KT 12/00 A2998 RMK A01 T01240001  RH  043%=      5-min Rain = 0
KWT1 132026Z 22016KT 12/M00 A2998 RMK A01 T01241001  RH  042%=      5-min Rain = 0
KWT1 132027Z 23016KT 12/00 A2998 RMK A01 T01230001  RH  043%=      5-min Rain = 0
KWT1 132028Z 23013KT 12/01 A2998 RMK A01 T01240005  RH  044%=      5-min Rain = 0
KWT1 132029Z 22015KT 12/00 A2998 RMK A01 T01240004  RH  044%=      5-min Rain = 0
KWT1 132030Z 22015KT 13/01 A2998 RMK A01 T01250005  RH  044%=      5-min Rain = 0
KWT1 132031Z 23012KT 13/01 A2998 RMK A01 T01260007  RH  044%=      5-min Rain = 0
KWT1 132032Z 22012G17KT 13/01 A2998 RMK A01 T01280009  RH  044%=      5-min Rain = 0
KWT1 132033Z 22012KT 13/01 A2997 RMK A01 T01290006  RH  043%=      5-min Rain = 0
KWT1 132034Z 21014KT 13/01 A2997 RMK A01 T01290008  RH  043%=      5-min Rain = 0
KWT1 132035Z 22012KT 13/01 A2997 RMK A01 T01290007  RH  043%=      5-min Rain = 0
KWT1 132036Z 22012KT 13/01 A2997 RMK A01 T01290012  RH  045%=      5-min Rain = 0
KWT1 132037Z 22013KT 13/01 A2997 RMK A01 T01300008  RH  043%=      5-min Rain = 0
KWT1 132038Z 22011KT 13/01 A2997 RMK A01 T01300008  RH  043%=      5-min Rain = 0
KWT1 132039Z 22015KT 13/01 A2997 RMK A01 T01320012  RH  044%=      5-min Rain = 0
KWT1 132040Z 21013KT 13/01 A2997 RMK A01 T01310008  RH  043%=      5-min Rain = 0
KWT1 132041Z 22011G16KT 13/01 A2997 RMK A01 T01310010  RH  044%=      5-min Rain = 0
KWT1 132042Z 22013KT 13/01 A2997 RMK A01 T01310012  RH  044%=      5-min Rain = 0
KWT1 132043Z 22012KT 13/01 A2997 RMK A01 T01320014  RH  045%=      5-min Rain = 0
KWT1 132044Z 22012KT 13/01 A2997 RMK A01 T01320014  RH  045%=      5-min Rain = 0
KWT1 132045Z 22011KT 13/01 A2997 RMK A01 T01330014  RH  045%=      5-min Rain = 0
KWT1 132046Z 24011KT 13/02 A2997 RMK A01 T01330017  RH  045%=      5-min Rain = 0
KWT1 132047Z 22012KT 14/02 A2998 RMK A01 T01350017  RH  045%=      5-min Rain = 0
KWT1 132048Z 24012KT 14/02 A2998 RMK A01 T01350016  RH  044%=      5-min Rain = 0
KWT1 132049Z 24014KT 14/02 A2998 RMK A01 T01350015  RH  044%=      5-min Rain = 0
KWT1 132050Z 24015KT 13/01 A2998 RMK A01 T01340014  RH  044%=      5-min Rain = 0
KWT1 132051Z 24013KT 13/02 A2998 RMK A01 T01330015  RH  045%=      5-min Rain = 0
KWT1 132052Z 23013KT 13/02 A2998 RMK A01 T01340016  RH  045%=      5-min Rain = 0
KWT1 132053Z 23012KT 13/02 A2998 RMK A01 T01340017  RH  045%=      5-min Rain = 0
KWT1 132054Z 25011KT 14/02 A2998 RMK A01 T01360022  RH  046%=      5-min Rain = 0
KWT1 132055Z 25012KT 14/02 A2997 RMK A01 T01380021  RH  045%=      5-min Rain = 0
KWT1 132056Z 25014KT 14/02 A2997 RMK A01 T01370018  RH  045%=      5-min Rain = 0
KWT1 132057Z 24011KT 14/02 A2997 RMK A01 T01350017  RH  045%=      5-min Rain = 0
KWT1 132058Z 23011G17KT 14/02 A2997 RMK A01 T01370022  RH  046%=      5-min Rain = 0
KWT1 132059Z 23013KT 14/02 A2997 RMK A01 T01380017  RH  044%=      5-min Rain = 0
KWT1 132100Z 23011KT 14/02 A2997 RMK A01 T01370016  RH  044%=      5-min Rain = 0
KWT1 132101Z 25013KT 14/02 A2997 RMK A01 T01370019  RH  045%=      5-min Rain = 0
KWT1 132102Z 24013KT 14/02 A2997 RMK A01 T01370020  RH  045%=      5-min Rain = 0
KWT1 132103Z 24013KT 14/02 A2997 RMK A01 T01380018  RH  044%=      5-min Rain = 0
KWT1 132104Z 23011KT 14/02 A2997 RMK A01 T01380016  RH  044%=      5-min Rain = 0
KWT1 132105Z 23013KT 14/01 A2997 RMK A01 T01370012  RH  042%=      5-min Rain = 0
KWT1 132106Z 22011KT 14/01 A2997 RMK A01 T01370013  RH  043%=      5-min Rain = 0
KWT1 132107Z 23013KT 14/01 A2996 RMK A01 T01370013  RH  043%=      5-min Rain = 0
KWT1 132108Z 23012KT 14/01 A2996 RMK A01 T01370013  RH  043%=      5-min Rain = 0
KWT1 132109Z 22012KT 14/02 A2996 RMK A01 T01370015  RH  044%=      5-min Rain = 0
KWT1 132110Z 23013KT 14/02 A2996 RMK A01 T01370015  RH  044%=      5-min Rain = 0
KWT1 132111Z 22013KT 14/01 A2996 RMK A01 T01370014  RH  043%=      5-min Rain = 0
KWT1 132112Z 22013KT 14/01 A2996 RMK A01 T01360010  RH  042%=      5-min Rain = 0
KWT1 132113Z 22012KT 14/02 A2996 RMK A01 T01360015  RH  044%=      5-min Rain = 0
KWT1 132114Z 23014KT 14/01 A2995 RMK A01 T01370014  RH  043%=      5-min Rain = 0
KWT1 132115Z 23015KT 14/01 A2995 RMK A01 T01380013  RH  043%=      5-min Rain = 0
KWT1 132116Z 23012KT 14/01 A2995 RMK A01 T01380011  RH  042%=      5-min Rain = 0
KWT1 132117Z 23014KT 14/02 A2995 RMK A01 T01390015  RH  043%=      5-min Rain = 0
KWT1 132118Z 23015KT 14/01 A2995 RMK A01 T01390013  RH  042%=      5-min Rain = 0
KWT1 132119Z 23014KT 14/01 A2995 RMK A01 T01390014  RH  043%=      5-min Rain = 0
KWT1 132120Z 23014KT 14/01 A2995 RMK A01 T01390014  RH  043%=      5-min Rain = 0
KWT1 132121Z 23014KT 14/01 A2995 RMK A01 T01400013  RH  042%=      5-min Rain = 0
KWT1 132122Z 23014KT 14/01 A2995 RMK A01 T01390010  RH  042%=      5-min Rain = 0
KWT1 132123Z 23013KT 14/02 A2995 RMK A01 T01390016  RH  043%=      5-min Rain = 0
KWT1 132124Z 22011KT 14/02 A2995 RMK A01 T01400018  RH  044%=      5-min Rain = 0
KWT1 132125Z 23011KT 14/02 A2995 RMK A01 T01410019  RH  044%=      5-min Rain = 0
KWT1 132126Z 22011KT 14/02 A2995 RMK A01 T01410016  RH  043%=      5-min Rain = 0
KWT1 132127Z 22010KT 14/02 A2995 RMK A01 T01420018  RH  043%=      5-min Rain = 0
KWT1 132128Z 22013KT 14/02 A2995 RMK A01 T01440021  RH  043%=      5-min Rain = 0
KWT1 132129Z 23013KT 14/02 A2995 RMK A01 T01440016  RH  042%=      5-min Rain = 0
KWT1 132130Z 22013KT 14/02 A2995 RMK A01 T01430016  RH  042%=      5-min Rain = 0
KWT1 132131Z 22012KT 14/02 A2995 RMK A01 T01420015  RH  042%=      5-min Rain = 0
KWT1 132132Z 22014KT 14/02 A2995 RMK A01 T01430015  RH  042%=      5-min Rain = 0
KWT1 132133Z 22014KT 14/01 A2995 RMK A01 T01430013  RH  041%=      5-min Rain = 0
KWT1 132134Z 22011KT 14/01 A2995 RMK A01 T01430013  RH  041%=      5-min Rain = 0
KWT1 132135Z 23012G17KT 15/02 A2995 RMK A01 T01450015  RH  041%=      5-min Rain = 0
KWT1 132136Z 22015KT 15/01 A2995 RMK A01 T01450011  RH  040%=      5-min Rain = 0
KWT1 132137Z 22014KT 15/01 A2995 RMK A01 T01450011  RH  040%=      5-min Rain = 0
KWT1 132138Z 23013KT 14/01 A2995 RMK A01 T01440011  RH  040%=      5-min Rain = 0
KWT1 132139Z 22015KT 15/01 A2995 RMK A01 T01450010  RH  040%=      5-min Rain = 0
KWT1 132140Z 22012KT 15/01 A2995 RMK A01 T01450008  RH  039%=      5-min Rain = 0
KWT1 132141Z 23010KT 15/01 A2995 RMK A01 T01460012  RH  040%=      5-min Rain = 0
KWT1 132142Z 23010KT 15/02 A2995 RMK A01 T01480015  RH  040%=      5-min Rain = 0
KWT1 132143Z 23012KT 15/01 A2995 RMK A01 T01490014  RH  040%=      5-min Rain = 0
KWT1 132144Z 23013KT 15/01 A2995 RMK A01 T01480008  RH  038%=      5-min Rain = 0
KWT1 132145Z 24011KT 15/01 A2995 RMK A01 T01480010  RH  039%=      5-min Rain = 0
KWT1 132146Z 24014KT 15/01 A2995 RMK A01 T01480009  RH  039%=      5-min Rain = 0
KWT1 132147Z 25014KT 15/00 A2995 RMK A01 T014700-0  RH  036%=      5-min Rain = 0
KWT1 132148Z 25013KT 15/00 A2996 RMK A01 T01460002  RH  037%=      5-min Rain = 0
KWT1 132149Z 25013KT 15/01 A2996 RMK A01 T01460006  RH  038%=      5-min Rain = 0
KWT1 132150Z 25015KT 15/01 A2996 RMK A01 T01470006  RH  038%=      5-min Rain = 0
KWT1 132151Z 25012KT 15/01 A2995 RMK A01 T01460005  RH  038%=      5-min Rain = 0
KWT1 132152Z 24013KT 15/01 A2995 RMK A01 T01460007  RH  039%=      5-min Rain = 0
KWT1 132153Z 24015KT 15/01 A2995 RMK A01 T01460007  RH  039%=      5-min Rain = 0
KWT1 132154Z 24015KT 15/01 A2995 RMK A01 T01460007  RH  039%=      5-min Rain = 0
KWT1 132155Z 24014KT 15/01 A2995 RMK A01 T01460006  RH  038%=      5-min Rain = 0
KWT1 132156Z 23014KT 15/00 A2995 RMK A01 T01460004  RH  038%=      5-min Rain = 0
KWT1 132157Z 24012KT 15/M00 A2995 RMK A01 T01461001  RH  037%=      5-min Rain = 0
KWT1 132158Z 24014KT 15/M00 A2995 RMK A01 T01471001  RH  036%=      5-min Rain = 0
KWT1 132159Z 23013KT 15/M00 A2995 RMK A01 T01471001  RH  036%=      5-min Rain = 0
KWT1 132200Z 24012KT 15/00 A2995 RMK A01 T014700-0  RH  037%=      5-min Rain = 0
KWT1 132201Z 24013KT 15/00 A2995 RMK A01 T01470001  RH  037%=      5-min Rain = 0
KWT1 132202Z 23014KT 15/00 A2994 RMK A01 T01460001  RH  037%=      5-min Rain = 0
KWT1 132203Z 24012KT 15/01 A2994 RMK A01 T01460005  RH  038%=      5-min Rain = 0
KWT1 132204Z 24012KT 15/01 A2995 RMK A01 T01460008  RH  039%=      5-min Rain = 0
KWT1 132205Z 24011KT 15/01 A2995 RMK A01 T01460008  RH  039%=      5-min Rain = 0
KWT1 132206Z 24013KT 15/01 A2994 RMK A01 T01470006  RH  038%=      5-min Rain = 0
KWT1 132207Z 24011KT 15/00 A2994 RMK A01 T01460003  RH  037%=      5-min Rain = 0
KWT1 132208Z 23014KT 15/00 A2994 RMK A01 T01450003  RH  038%=      5-min Rain = 0
KWT1 132209Z 25014KT 15/00 A2994 RMK A01 T01450001  RH  037%=      5-min Rain = 0
KWT1 132210Z 24013G18KT 14/00 A2994 RMK A01 T01440003  RH  038%=      5-min Rain = 0
KWT1 132211Z 24013KT 14/00 A2994 RMK A01 T01440002  RH  038%=      5-min Rain = 0
KWT1 132212Z 24012KT 14/00 A2994 RMK A01 T01440003  RH  038%=      5-min Rain = 0
KWT1 132213Z 24012KT 15/00 A2994 RMK A01 T01450004  RH  038%=      5-min Rain = 0
KWT1 132214Z 25012KT 15/00 A2994 RMK A01 T01450002  RH  038%=      5-min Rain = 0
KWT1 132215Z 24012KT 15/00 A2994 RMK A01 T01450002  RH  038%=      5-min Rain = 0
KWT1 132216Z 24014KT 15/00 A2994 RMK A01 T01450001  RH  037%=      5-min Rain = 0
KWT1 132217Z 24013KT 15/M00 A2995 RMK A01 T01451001  RH  037%=      5-min Rain = 0
KWT1 132218Z 24012KT 15/00 A2995 RMK A01 T01450000  RH  037%=      5-min Rain = 0
KWT1 132219Z 24013KT 15/M00 A2994 RMK A01 T01461001  RH  037%=      5-min Rain = 0
KWT1 132220Z 24013KT 15/M00 A2994 RMK A01 T01451002  RH  036%=      5-min Rain = 0
KWT1 132221Z 24013KT 15/00 A2994 RMK A01 T01460000  RH  037%=      5-min Rain = 0
KWT1 132222Z 24011KT 15/00 A2994 RMK A01 T01450003  RH  038%=      5-min Rain = 0
KWT1 132223Z 25011KT 15/01 A2995 RMK A01 T01460005  RH  038%=      5-min Rain = 0
KWT1 132224Z 24010KT 15/01 A2995 RMK A01 T01460007  RH  039%=      5-min Rain = 0
KWT1 132225Z 24011KT 15/01 A2995 RMK A01 T01470010  RH  039%=      5-min Rain = 0
KWT1 132226Z 25012KT 15/01 A2995 RMK A01 T01470010  RH  039%=      5-min Rain = 0
KWT1 132227Z 24012KT 15/01 A2995 RMK A01 T01460007  RH  039%=      5-min Rain = 0
KWT1 132228Z 24012KT 15/01 A2995 RMK A01 T01460008  RH  039%=      5-min Rain = 0
KWT1 132229Z 24015KT 15/01 A2995 RMK A01 T01450007  RH  039%=      5-min Rain = 0
KWT1 132230Z 24013KT 15/01 A2995 RMK A01 T01460007  RH  039%=      5-min Rain = 0
KWT1 132231Z 24015KT 15/01 A2995 RMK A01 T01450006  RH  039%=      5-min Rain = 0
KWT1 132232Z 24013KT 15/01 A2995 RMK A01 T01450006  RH  039%=      5-min Rain = 0
KWT1 132233Z 24011KT 15/01 A2995 RMK A01 T01450008  RH  039%=      5-min Rain = 0
KWT1 132234Z 24012KT 15/01 A2995 RMK A01 T01450008  RH  039%=      5-min Rain = 0
KWT1 132235Z 24010KT 15/01 A2995 RMK A01 T01450009  RH  039%=      5-min Rain = 0
KWT1 132236Z 24013KT 15/01 A2995 RMK A01 T01450008  RH  039%=      5-min Rain = 0
KWT1 132237Z 25013KT 14/01 A2995 RMK A01 T01440007  RH  039%=      5-min Rain = 0
KWT1 132238Z 24013KT 14/01 A2995 RMK A01 T01440008  RH  040%=      5-min Rain = 0
KWT1 132239Z 25013KT 14/01 A2995 RMK A01 T01440008  RH  040%=      5-min Rain = 0
KWT1 132240Z 25011KT 14/01 A2995 RMK A01 T01430009  RH  040%=      5-min Rain = 0
KWT1 132241Z 24011KT 14/01 A2995 RMK A01 T01430011  RH  041%=      5-min Rain = 0
KWT1 132242Z 24012KT 14/01 A2995 RMK A01 T01440012  RH  041%=      5-min Rain = 0
KWT1 132243Z 24012KT 14/01 A2995 RMK A01 T01430012  RH  041%=      5-min Rain = 0
KWT1 132244Z 24012KT 14/01 A2995 RMK A01 T01430013  RH  041%=      5-min Rain = 0
KWT1 132245Z 24012KT 14/01 A2995 RMK A01 T01440014  RH  041%=      5-min Rain = 0
KWT1 132246Z 24012KT 14/02 A2995 RMK A01 T01440015  RH  042%=      5-min Rain = 0
KWT1 132247Z 24013KT 14/01 A2994 RMK A01 T01440014  RH  041%=      5-min Rain = 0
KWT1 132248Z 23013KT 14/01 A2994 RMK A01 T01440012  RH  041%=      5-min Rain = 0
KWT1 132249Z 23010KT 14/01 A2994 RMK A01 T01440011  RH  041%=      5-min Rain = 0
KWT1 132250Z 24013KT 14/01 A2994 RMK A01 T01440009  RH  040%=      5-min Rain = 0
KWT1 132251Z 23014KT 14/01 A2994 RMK A01 T01430006  RH  039%=      5-min Rain = 0
KWT1 132252Z 24013KT 14/01 A2994 RMK A01 T01440005  RH  039%=      5-min Rain = 0
KWT1 132253Z 24012KT 14/01 A2994 RMK A01 T01440008  RH  040%=      5-min Rain = 0
KWT1 132254Z 23013KT 14/01 A2994 RMK A01 T01430007  RH  039%=      5-min Rain = 0
KWT1 132255Z 23010KT 14/01 A2994 RMK A01 T01440007  RH  039%=      5-min Rain = 0
KWT1 132256Z 23012KT 14/01 A2994 RMK A01 T01430009  RH  040%=      5-min Rain = 0
KWT1 132257Z 23012KT 14/01 A2994 RMK A01 T01430008  RH  040%=      5-min Rain = 0
KWT1 132258Z 24010KT 14/01 A2994 RMK A01 T01430009  RH  040%=      5-min Rain = 0
KWT1 132259Z 24010KT 14/01 A2994 RMK A01 T01430010  RH  040%=      5-min Rain = 0
KWT1 132300Z 24010KT 14/01 A2994 RMK A01 T01420011  RH  041%=      5-min Rain = 0
KWT1 132301Z 24010KT 14/01 A2994 RMK A01 T01420011  RH  041%=      5-min Rain = 0
KWT1 132302Z 24009KT 14/01 A2994 RMK A01 T01420011  RH  041%=      5-min Rain = 0
KWT1 132303Z 24011KT 14/01 A2994 RMK A01 T01420012  RH  041%=      5-min Rain = 0
KWT1 132304Z 24012KT 14/01 A2994 RMK A01 T01420011  RH  041%=      5-min Rain = 0
KWT1 132305Z 23011KT 14/01 A2994 RMK A01 T01420011  RH  041%=      5-min Rain = 0
KWT1 132306Z 24010KT 14/01 A2994 RMK A01 T01420012  RH  041%=      5-min Rain = 0
KWT1 132307Z 24009KT 14/01 A2994 RMK A01 T01420013  RH  042%=      5-min Rain = 0
KWT1 132308Z 24010KT 14/01 A2994 RMK A01 T01410013  RH  042%=      5-min Rain = 0
KWT1 132309Z 23010KT 14/01 A2994 RMK A01 T01410012  RH  041%=      5-min Rain = 0
KWT1 132310Z 23011KT 14/01 A2994 RMK A01 T01410011  RH  041%=      5-min Rain = 0
KWT1 132311Z 23009KT 14/01 A2994 RMK A01 T01410010  RH  041%=      5-min Rain = 0
KWT1 132312Z 23011KT 14/01 A2994 RMK A01 T01420012  RH  041%=      5-min Rain = 0
KWT1 132313Z 23010KT 14/01 A2994 RMK A01 T01420011  RH  041%=      5-min Rain = 0
KWT1 132314Z 23009KT 14/01 A2994 RMK A01 T01410012  RH  041%=      5-min Rain = 0
KWT1 132315Z 23009KT 14/01 A2994 RMK A01 T01410012  RH  041%=      5-min Rain = 0
KWT1 132316Z 23009KT 14/01 A2994 RMK A01 T01400013  RH  042%=      5-min Rain = 0
KWT1 132317Z 23009KT 14/01 A2994 RMK A01 T01400012  RH  042%=      5-min Rain = 0
KWT1 132318Z 23009KT 14/01 A2994 RMK A01 T01400012  RH  042%=      5-min Rain = 0
KWT1 132319Z 23009KT 14/01 A2994 RMK A01 T01390011  RH  042%=      5-min Rain = 0
KWT1 132320Z 23009KT 14/01 A2994 RMK A01 T01390011  RH  042%=      5-min Rain = 0
KWT1 132321Z 23008KT 14/01 A2994 RMK A01 T01390011  RH  042%=      5-min Rain = 0
KWT1 132322Z 22009KT 14/01 A2994 RMK A01 T01390012  RH  042%=      5-min Rain = 0
KWT1 132323Z 23008KT 14/01 A2994 RMK A01 T01380013  RH  043%=      5-min Rain = 0
KWT1 132324Z 23007KT 14/01 A2994 RMK A01 T01370013  RH  043%=      5-min Rain = 0
KWT1 132325Z 23008KT 14/01 A2994 RMK A01 T01370013  RH  043%=      5-min Rain = 0
KWT1 132326Z 22007KT 14/01 A2994 RMK A01 T01360013  RH  043%=      5-min Rain = 0
KWT1 132327Z 22008KT 14/01 A2993 RMK A01 T01360013  RH  043%=      5-min Rain = 0
KWT1 132328Z 22008KT 14/01 A2993 RMK A01 T01350014  RH  044%=      5-min Rain = 0
KWT1 132329Z 22008KT 13/02 A2993 RMK A01 T01340016  RH  045%=      5-min Rain = 0
KWT1 132330Z 22008KT 13/02 A2993 RMK A01 T01330016  RH  045%=      5-min Rain = 0
KWT1 132331Z 22009KT 13/02 A2993 RMK A01 T01330016  RH  045%=      5-min Rain = 0
KWT1 132332Z 22009KT 13/02 A2992 RMK A01 T01320016  RH  045%=      5-min Rain = 0
KWT1 132333Z 22008KT 13/02 A2992 RMK A01 T01320017  RH  045%=      5-min Rain = 0
KWT1 132334Z 21007KT 13/02 A2992 RMK A01 T01320016  RH  045%=      5-min Rain = 0
KWT1 132335Z 21007KT 13/02 A2992 RMK A01 T01310016  RH  045%=      5-min Rain = 0
KWT1 132336Z 21008KT 13/02 A2992 RMK A01 T01300016  RH  046%=      5-min Rain = 0
KWT1 132337Z 21008KT 13/02 A2992 RMK A01 T01300016  RH  046%=      5-min Rain = 0
KWT1 132338Z 21008KT 13/02 A2992 RMK A01 T01280015  RH  046%=      5-min Rain = 0
KWT1 132339Z 21008KT 13/01 A2992 RMK A01 T01280014  RH  046%=      5-min Rain = 0
KWT1 132340Z 21009KT 13/01 A2992 RMK A01 T01270013  RH  046%=      5-min Rain = 0
KWT1 132341Z 21009KT 13/01 A2992 RMK A01 T01270013  RH  046%=      5-min Rain = 0
KWT1 132342Z 22009KT 13/01 A2992 RMK A01 T01250013  RH  046%=      5-min Rain = 0
KWT1 132343Z 22009KT 13/01 A2992 RMK A01 T01250012  RH  046%=      5-min Rain = 0
KWT1 132344Z 22008KT 13/01 A2992 RMK A01 T01250012  RH  046%=      5-min Rain = 0
KWT1 132345Z 22009KT 12/01 A2992 RMK A01 T01240011  RH  046%=      5-min Rain = 0
KWT1 132346Z 22009KT 12/01 A2992 RMK A01 T01240011  RH  046%=      5-min Rain = 0
KWT1 132347Z 22009KT 12/01 A2992 RMK A01 T01230010  RH  046%=      5-min Rain = 0
KWT1 132348Z 22009KT 12/01 A2992 RMK A01 T01230010  RH  046%=      5-min Rain = 0
KWT1 132349Z 22009KT 12/01 A2992 RMK A01 T01220010  RH  046%=      5-min Rain = 0
KWT1 132350Z 22009KT 12/01 A2992 RMK A01 T01220009  RH  046%=      5-min Rain = 0
KWT1 132351Z 22009KT 12/01 A2992 RMK A01 T01220008  RH  046%=      5-min Rain = 0
KWT1 132352Z 22009KT 12/01 A2992 RMK A01 T01210008  RH  046%=      5-min Rain = 0
KWT1 132353Z 22009KT 12/01 A2992 RMK A01 T01210008  RH  046%=      5-min Rain = 0
KWT1 132354Z 22009KT 12/01 A2992 RMK A01 T01210007  RH  046%=      5-min Rain = 0
KWT1 132355Z 22008KT 12/01 A2992 RMK A01 T01200007  RH  046%=      5-min Rain = 0
KWT1 132356Z 22009KT 12/01 A2992 RMK A01 T01200007  RH  046%=      5-min Rain = 0
KWT1 132357Z 22008KT 12/01 A2992 RMK A01 T01190006  RH  046%=      5-min Rain = 0
KWT1 132358Z 22008KT 12/01 A2992 RMK A01 T01190007  RH  046%=      5-min Rain = 0
KWT1 132359Z 22008KT 12/01 A2992 RMK A01 T01180007  RH  046%=      5-min Rain = 0
KWT1 140000Z 21009KT 12/01 A2992 RMK A01 T01170007  RH  047%=      5-min Rain = 0
KWT1 140001Z 22008KT 12/01 A2992 RMK A01 T01150007  RH  047%=      5-min Rain = 0
KWT1 140002Z 22009KT 12/01 A2992 RMK A01 T01150007  RH  048%=      5-min Rain = 0
KWT1 140003Z 21009KT 11/01 A2992 RMK A01 T01140007  RH  048%=      5-min Rain = 0
KWT1 140004Z 21008KT 11/01 A2992 RMK A01 T01130007  RH  048%=      5-min Rain = 0
KWT1 140005Z 22008KT 11/01 A2992 RMK A01 T01120007  RH  048%=      5-min Rain = 0
KWT1 140006Z 21008KT 11/01 A2992 RMK A01 T01110007  RH  049%=      5-min Rain = 0
KWT1 140007Z 22008KT 11/01 A2992 RMK A01 T01100008  RH  049%=      5-min Rain = 0
KWT1 140008Z 22007KT 11/01 A2992 RMK A01 T01090007  RH  049%=      5-min Rain = 0
KWT1 140009Z 22007KT 11/01 A2992 RMK A01 T01090008  RH  050%=      5-min Rain = 0
KWT1 140010Z 22008KT 11/01 A2992 RMK A01 T01080008  RH  050%=      5-min Rain = 0
KWT1 140011Z 22008KT 11/01 A2992 RMK A01 T01070008  RH  050%=      5-min Rain = 0
KWT1 140012Z 22009KT 11/01 A2992 RMK A01 T01060008  RH  051%=      5-min Rain = 0
KWT1 140013Z 22009KT 11/01 A2992 RMK A01 T01050007  RH  051%=      5-min Rain = 0
KWT1 140014Z 22008KT 11/01 A2992 RMK A01 T01050007  RH  051%=      5-min Rain = 0
KWT1 140015Z 22008KT 11/01 A2992 RMK A01 T01050007  RH  051%=      5-min Rain = 0
KWT1 140016Z 22008KT 11/01 A2992 RMK A01 T01050006  RH  050%=      5-min Rain = 0
KWT1 140017Z 22007KT 11/01 A2992 RMK A01 T01050006  RH  050%=      5-min Rain = 0
KWT1 140018Z 22008KT 11/01 A2992 RMK A01 T01050006  RH  050%=      5-min Rain = 0
KWT1 140019Z 22008KT 11/01 A2992 RMK A01 T01050006  RH  050%=      5-min Rain = 0
KWT1 140020Z 22007KT 11/01 A2992 RMK A01 T01050006  RH  050%=      5-min Rain = 0
KWT1 140021Z 22008KT 10/01 A2992 RMK A01 T01030005  RH  051%=      5-min Rain = 0
KWT1 140022Z 22008KT 10/01 A2992 RMK A01 T01020005  RH  051%=      5-min Rain = 0
KWT1 140023Z 22009KT 10/01 A2992 RMK A01 T01020005  RH  051%=      5-min Rain = 0
KWT1 140024Z 22009KT 10/00 A2992 RMK A01 T01020004  RH  051%=      5-min Rain = 0
KWT1 140025Z 22009KT 10/01 A2992 RMK A01 T01030005  RH  051%=      5-min Rain = 0
KWT1 140026Z 22009KT 10/00 A2992 RMK A01 T01030004  RH  050%=      5-min Rain = 0
KWT1 140027Z 22009KT 10/00 A2992 RMK A01 T01020004  RH  050%=      5-min Rain = 0
KWT1 140028Z 21010KT 10/00 A2992 RMK A01 T01030004  RH  050%=      5-min Rain = 0
KWT1 140029Z 21009KT 10/00 A2991 RMK A01 T01030004  RH  050%=      5-min Rain = 0
KWT1 140030Z 22010KT 10/00 A2991 RMK A01 T01030004  RH  050%=      5-min Rain = 0
KWT1 140031Z 22009KT 10/00 A2991 RMK A01 T01030003  RH  050%=      5-min Rain = 0
KWT1 140032Z 22009KT 10/00 A2991 RMK A01 T01040003  RH  050%=      5-min Rain = 0
KWT1 140033Z 22009KT 10/00 A2991 RMK A01 T01040003  RH  050%=      5-min Rain = 0
KWT1 140034Z 22009KT 10/00 A2991 RMK A01 T01040003  RH  050%=      5-min Rain = 0
KWT1 140035Z 22009KT 10/00 A2991 RMK A01 T01040003  RH  050%=      5-min Rain = 0
KWT1 140036Z 22009KT 10/00 A2991 RMK A01 T01040004  RH  050%=      5-min Rain = 0
KWT1 140037Z 21009KT 10/00 A2991 RMK A01 T01030003  RH  050%=      5-min Rain = 0
KWT1 140038Z 21009KT 10/00 A2991 RMK A01 T01020003  RH  050%=      5-min Rain = 0
KWT1 140039Z 21010KT 10/00 A2991 RMK A01 T01020003  RH  050%=      5-min Rain = 0
KWT1 140040Z 21010KT 10/00 A2991 RMK A01 T01000003  RH  051%=      5-min Rain = 0
KWT1 140041Z 21010KT 10/00 A2991 RMK A01 T00990003  RH  051%=      5-min Rain = 0
KWT1 140042Z 21010KT 10/00 A2991 RMK A01 T00990003  RH  051%=      5-min Rain = 0
KWT1 140043Z 21010KT 10/00 A2991 RMK A01 T00980003  RH  051%=      5-min Rain = 0
KWT1 140044Z 21009KT 10/00 A2991 RMK A01 T00980003  RH  052%=      5-min Rain = 0
KWT1 140045Z 21009KT 10/00 A2991 RMK A01 T00980003  RH  052%=      5-min Rain = 0
KWT1 140046Z 21008KT 10/00 A2991 RMK A01 T00970003  RH  052%=      5-min Rain = 0
KWT1 140047Z 21008KT 10/00 A2991 RMK A01 T00970003  RH  052%=      5-min Rain = 0
KWT1 140048Z 21009KT 10/00 A2991 RMK A01 T00960003  RH  052%=      5-min Rain = 0
KWT1 140049Z 21009KT 10/00 A2991 RMK A01 T00950002  RH  052%=      5-min Rain = 0
KWT1 140050Z 21008KT 10/00 A2991 RMK A01 T00950002  RH  052%=      5-min Rain = 0
KWT1 140051Z 21008KT 10/00 A2991 RMK A01 T00960002  RH  052%=      5-min Rain = 0
KWT1 140052Z 21009KT 10/00 A2991 RMK A01 T00960002  RH  052%=      5-min Rain = 0
KWT1 140053Z 21009KT 10/00 A2991 RMK A01 T00950001  RH  052%=      5-min Rain = 0
KWT1 140054Z 21009KT 09/00 A2991 RMK A01 T00940001  RH  052%=      5-min Rain = 0
KWT1 140055Z 21009KT 09/00 A2991 RMK A01 T00930001  RH  053%=      5-min Rain = 0
KWT1 140056Z 21009KT 09/00 A2991 RMK A01 T00920001  RH  053%=      5-min Rain = 0
KWT1 140057Z 21010KT 09/00 A2991 RMK A01 T00910001  RH  053%=      5-min Rain = 0
KWT1 140058Z 21009KT 09/00 A2991 RMK A01 T00900001  RH  053%=      5-min Rain = 0
KWT1 140059Z 21010KT 09/00 A2991 RMK A01 T009000-0  RH  053%=      5-min Rain = 0
KWT1 140100Z 21010KT 09/00 A2991 RMK A01 T009000-0  RH  053%=      5-min Rain = 0
KWT1 140101Z 21010KT 09/00 A2991 RMK A01 T008900-0  RH  054%=      5-min Rain = 0
KWT1 140102Z 21010KT 09/M00 A2991 RMK A01 T00881001  RH  054%=      5-min Rain = 0
KWT1 140103Z 21010KT 09/M00 A2991 RMK A01 T00881001  RH  054%=      5-min Rain = 0
KWT1 140104Z 21010KT 09/M00 A2991 RMK A01 T00881001  RH  054%=      5-min Rain = 0
KWT1 140105Z 21010KT 09/M00 A2991 RMK A01 T00881001  RH  054%=      5-min Rain = 0
KWT1 140106Z 21010KT 09/M00 A2991 RMK A01 T00881001  RH  054%=      5-min Rain = 0
KWT1 140107Z 21010KT 09/M00 A2991 RMK A01 T00881001  RH  054%=      5-min Rain = 0
KWT1 140108Z 21010KT 09/00 A2991 RMK A01 T008700-0  RH  054%=      5-min Rain = 0
KWT1 140109Z 21010KT 09/M00 A2991 RMK A01 T00871001  RH  054%=      5-min Rain = 0
KWT1 140110Z 21010KT 09/M00 A2991 RMK A01 T00861001  RH  054%=      5-min Rain = 0
KWT1 140111Z 21010KT 09/M00 A2991 RMK A01 T00861001  RH  054%=      5-min Rain = 0
KWT1 140112Z 21010KT 09/M00 A2991 RMK A01 T00851001  RH  054%=      5-min Rain = 0
KWT1 140113Z 21010KT 09/M00 A2991 RMK A01 T00851002  RH  054%=      5-min Rain = 0
KWT1 140114Z 21010KT 09/M00 A2991 RMK A01 T00861002  RH  054%=      5-min Rain = 0
KWT1 140115Z 21010KT 09/M00 A2991 RMK A01 T00851003  RH  054%=      5-min Rain = 0
KWT1 140116Z 21010KT 09/M00 A2991 RMK A01 T00851003  RH  054%=      5-min Rain = 0
KWT1 140117Z 21010KT 08/M00 A2991 RMK A01 T00841003  RH  054%=      5-min Rain = 0
KWT1 140118Z 21010KT 08/M00 A2991 RMK A01 T00831003  RH  054%=      5-min Rain = 0
KWT1 140119Z 21010KT 08/M00 A2991 RMK A01 T00831003  RH  055%=      5-min Rain = 0
KWT1 140120Z 21010KT 08/M00 A2991 RMK A01 T00811003  RH  055%=      5-min Rain = 0
KWT1 140121Z 21010KT 08/M00 A2991 RMK A01 T00811004  RH  055%=      5-min Rain = 0
KWT1 140122Z 21010KT 08/M00 A2991 RMK A01 T00821004  RH  055%=      5-min Rain = 0
KWT1 140123Z 22010KT 08/M00 A2991 RMK A01 T00821004  RH  055%=      5-min Rain = 0
KWT1 140124Z 21010KT 08/M00 A2991 RMK A01 T00831004  RH  054%=      5-min Rain = 0
KWT1 140125Z 21010KT 08/M00 A2991 RMK A01 T00821004  RH  055%=      5-min Rain = 0
KWT1 140126Z 22010KT 08/M00 A2991 RMK A01 T00821004  RH  055%=      5-min Rain = 0
KWT1 140127Z 22010KT 08/M01 A2991 RMK A01 T00811005  RH  055%=      5-min Rain = 0
KWT1 140128Z 22010KT 08/M01 A2991 RMK A01 T00811005  RH  054%=      5-min Rain = 0
KWT1 140129Z 22010KT 08/M01 A2992 RMK A01 T00811006  RH  054%=      5-min Rain = 0
KWT1 140130Z 22010KT 08/M01 A2992 RMK A01 T00821006  RH  054%=      5-min Rain = 0
KWT1 140131Z 22010KT 08/M01 A2992 RMK A01 T00821007  RH  053%=      5-min Rain = 0
KWT1 140132Z 22010KT 08/M01 A2992 RMK A01 T00831007  RH  053%=      5-min Rain = 0
KWT1 140133Z 22010KT 08/M01 A2992 RMK A01 T00831007  RH  053%=      5-min Rain = 0
KWT1 140134Z 22010KT 08/M01 A2992 RMK A01 T00831007  RH  053%=      5-min Rain = 0
KWT1 140135Z 22010KT 08/M01 A2992 RMK A01 T00831007  RH  053%=      5-min Rain = 0
KWT1 140136Z 22010KT 08/M01 A2992 RMK A01 T00831007  RH  053%=      5-min Rain = 0
KWT1 140137Z 22010KT 08/M01 A2992 RMK A01 T00841007  RH  053%=      5-min Rain = 0
KWT1 140138Z 22010KT 08/M01 A2992 RMK A01 T00841007  RH  053%=      5-min Rain = 0
KWT1 140139Z 22009KT 08/M01 A2992 RMK A01 T00831007  RH  053%=      5-min Rain = 0
KWT1 140140Z 22009KT 08/M01 A2992 RMK A01 T00831007  RH  053%=      5-min Rain = 0
KWT1 140141Z 22009KT 08/M01 A2992 RMK A01 T00831007  RH  053%=      5-min Rain = 0
KWT1 140142Z 22009KT 08/M01 A2992 RMK A01 T00821007  RH  053%=      5-min Rain = 0
KWT1 140143Z 22009KT 08/M01 A2992 RMK A01 T00821007  RH  053%=      5-min Rain = 0
KWT1 140144Z 22010KT 08/M01 A2992 RMK A01 T00821006  RH  054%=      5-min Rain = 0
KWT1 140145Z 22010KT 08/M01 A2992 RMK A01 T00821007  RH  054%=      5-min Rain = 0
KWT1 140146Z 22010KT 08/M01 A2992 RMK A01 T00821007  RH  054%=      5-min Rain = 0
KWT1 140147Z 22010KT 08/M01 A2991 RMK A01 T00821007  RH  054%=      5-min Rain = 0
KWT1 140148Z 22010KT 08/M01 A2991 RMK A01 T00821007  RH  054%=      5-min Rain = 0
KWT1 140149Z 22010KT 08/M01 A2991 RMK A01 T00821007  RH  054%=      5-min Rain = 0
KWT1 140150Z 22010KT 08/M01 A2991 RMK A01 T00811007  RH  054%=      5-min Rain = 0
KWT1 140151Z 22010KT 08/M01 A2991 RMK A01 T00811007  RH  053%=      5-min Rain = 0
KWT1 140152Z 22010KT 08/M01 A2991 RMK A01 T00821008  RH  053%=      5-min Rain = 0
KWT1 140153Z 22010KT 08/M01 A2991 RMK A01 T00821007  RH  053%=      5-min Rain = 0
KWT1 140154Z 22010KT 08/M01 A2991 RMK A01 T00821007  RH  053%=      5-min Rain = 0
KWT1 140155Z 22009KT 08/M01 A2991 RMK A01 T00821007  RH  053%=      5-min Rain = 0
KWT1 140156Z 22009KT 08/M01 A2991 RMK A01 T00821008  RH  053%=      5-min Rain = 0
KWT1 140157Z 22009KT 08/M01 A2991 RMK A01 T00821008  RH  053%=      5-min Rain = 0
KWT1 140158Z 22010KT 08/M01 A2991 RMK A01 T00811008  RH  053%=      5-min Rain = 0
KWT1 140159Z 22010KT 08/M01 A2991 RMK A01 T00811009  RH  053%=      5-min Rain = 0
KWT1 140200Z 22009KT 08/M01 A2991 RMK A01 T00811009  RH  053%=      5-min Rain = 0
KWT1 140201Z 22009KT 08/M01 A2991 RMK A01 T00811009  RH  053%=      5-min Rain = 0
KWT1 140202Z 22010KT 08/M01 A2991 RMK A01 T00821009  RH  053%=      5-min Rain = 0
KWT1 140203Z 22010KT 08/M01 A2991 RMK A01 T00821009  RH  053%=      5-min Rain = 0
KWT1 140204Z 22010KT 08/M01 A2991 RMK A01 T00811009  RH  053%=      5-min Rain = 0
KWT1 140205Z 22010KT 08/M01 A2991 RMK A01 T00811009  RH  053%=      5-min Rain = 0
KWT1 140206Z 22010KT 08/M01 A2991 RMK A01 T00801009  RH  053%=      5-min Rain = 0
KWT1 140207Z 21011KT 08/M01 A2991 RMK A01 T00791009  RH  054%=      5-min Rain = 0
KWT1 140208Z 21010KT 08/M01 A2991 RMK A01 T00791009  RH  054%=      5-min Rain = 0
KWT1 140209Z 21011KT 08/M01 A2991 RMK A01 T00781008  RH  054%=      5-min Rain = 0
KWT1 140210Z 21010KT 08/M01 A2991 RMK A01 T00771008  RH  055%=      5-min Rain = 0
KWT1 140211Z 21011KT 08/M01 A2991 RMK A01 T00771008  RH  055%=      5-min Rain = 0
KWT1 140212Z 21010KT 08/M01 A2991 RMK A01 T00771008  RH  055%=      5-min Rain = 0
KWT1 140213Z 21011KT 08/M01 A2991 RMK A01 T00761008  RH  055%=      5-min Rain = 0
KWT1 140214Z 21011KT 08/M01 A2991 RMK A01 T00771007  RH  055%=      5-min Rain = 0
KWT1 140215Z 21010KT 08/M01 A2991 RMK A01 T00761007  RH  056%=      5-min Rain = 0
KWT1 140216Z 21010KT 08/M01 A2991 RMK A01 T00761007  RH  056%=      5-min Rain = 0
KWT1 140217Z 21010KT 08/M01 A2991 RMK A01 T00761007  RH  056%=      5-min Rain = 0
KWT1 140218Z 21010KT 08/M01 A2991 RMK A01 T00751007  RH  056%=      5-min Rain = 0
KWT1 140219Z 21010KT 08/M01 A2991 RMK A01 T00751007  RH  056%=      5-min Rain = 0
KWT1 140220Z 21010KT 07/M01 A2991 RMK A01 T00741007  RH  057%=      5-min Rain = 0
KWT1 140221Z 21010KT 07/M01 A2991 RMK A01 T00741007  RH  057%=      5-min Rain = 0
KWT1 140222Z 21010KT 07/M01 A299 RMK A01 T00731007  RH  057%=      5-min Rain = 0
KWT1 140223Z 21010KT 07/M01 A299 RMK A01 T00731007  RH  057%=      5-min Rain = 0
KWT1 140224Z 21010KT 07/M01 A299 RMK A01 T00731007  RH  057%=      5-min Rain = 0
KWT1 140225Z 21010KT 07/M01 A299 RMK A01 T00721007  RH  057%=      5-min Rain = 0
KWT1 140226Z 21010KT 07/M01 A299 RMK A01 T00721007  RH  057%=      5-min Rain = 0
KWT1 140227Z 21010KT 07/M01 A299 RMK A01 T00711007  RH  057%=      5-min Rain = 0
KWT1 140228Z 22010KT 07/M01 A299 RMK A01 T00711007  RH  058%=      5-min Rain = 0
KWT1 140229Z 22010KT 07/M01 A299 RMK A01 T00711007  RH  058%=      5-min Rain = 0
KWT1 140230Z 22010KT 07/M01 A299 RMK A01 T00701007  RH  058%=      5-min Rain = 0
KWT1 140231Z 22010KT 07/M01 A299 RMK A01 T00691008  RH  058%=      5-min Rain = 0
KWT1 140232Z 22009KT 07/M01 A299 RMK A01 T00701007  RH  058%=      5-min Rain = 0
KWT1 140233Z 22010KT 07/M01 A299 RMK A01 T00691008  RH  058%=      5-min Rain = 0
KWT1 140234Z 22010KT 07/M01 A299 RMK A01 T00691008  RH  058%=      5-min Rain = 0
KWT1 140235Z 22010KT 07/M01 A299 RMK A01 T00691008  RH  058%=      5-min Rain = 0
KWT1 140236Z 21010KT 07/M01 A299 RMK A01 T00691008  RH  058%=      5-min Rain = 0
KWT1 140237Z 21010KT 07/M01 A299 RMK A01 T00691008  RH  058%=      5-min Rain = 0
KWT1 140238Z 21010KT 07/M01 A299 RMK A01 T00681008  RH  058%=      5-min Rain = 0
KWT1 140239Z 21010KT 07/M01 A299 RMK A01 T00681008  RH  058%=      5-min Rain = 0
KWT1 140240Z 21010KT 07/M01 A299 RMK A01 T00661008  RH  059%=      5-min Rain = 0
KWT1 140241Z 21010KT 07/M01 A299 RMK A01 T00651008  RH  060%=      5-min Rain = 0
KWT1 140242Z 21010KT 06/M01 A299 RMK A01 T00631008  RH  060%=      5-min Rain = 0
KWT1 140243Z 21011KT 06/M01 A299 RMK A01 T00621008  RH  061%=      5-min Rain = 0
KWT1 140244Z 21011KT 06/M01 A299 RMK A01 T00621008  RH  061%=      5-min Rain = 0
KWT1 140245Z 21011KT 06/M01 A299 RMK A01 T00611008  RH  061%=      5-min Rain = 0
KWT1 140246Z 21011KT 06/M01 A299 RMK A01 T00621008  RH  061%=      5-min Rain = 0
KWT1 140247Z 21011KT 06/M01 A299 RMK A01 T00621008  RH  061%=      5-min Rain = 0
KWT1 140248Z 21010KT 06/M01 A299 RMK A01 T00611009  RH  061%=      5-min Rain = 0
KWT1 140249Z 21010KT 06/M01 A299 RMK A01 T00621008  RH  061%=      5-min Rain = 0
KWT1 140250Z 21010KT 06/M01 A299 RMK A01 T00621009  RH  060%=      5-min Rain = 0
KWT1 140251Z 21010KT 06/M01 A2989 RMK A01 T00621009  RH  060%=      5-min Rain = 0
KWT1 140252Z 21010KT 06/M01 A2989 RMK A01 T00621009  RH  060%=      5-min Rain = 0
KWT1 140253Z 22010KT 06/M01 A2989 RMK A01 T00621009  RH  060%=      5-min Rain = 0
KWT1 140254Z 21010KT 06/M01 A2989 RMK A01 T00631009  RH  060%=      5-min Rain = 0
KWT1 140255Z 22010KT 06/M01 A2989 RMK A01 T00621010  RH  060%=      5-min Rain = 0
KWT1 140256Z 21010KT 06/M01 A2989 RMK A01 T00631010  RH  060%=      5-min Rain = 0
KWT1 140257Z 21010KT 06/M01 A2989 RMK A01 T00631010  RH  060%=      5-min Rain = 0
KWT1 140258Z 21010KT 06/M01 A2989 RMK A01 T00631010  RH  060%=      5-min Rain = 0
KWT1 140259Z 21010KT 06/M01 A2989 RMK A01 T00631010  RH  060%=      5-min Rain = 0
KWT1 140300Z 21010KT 06/M01 A2989 RMK A01 T00621010  RH  060%=      5-min Rain = 0
KWT1 140301Z 21010KT 06/M01 A2989 RMK A01 T00621010  RH  060%=      5-min Rain = 0
KWT1 140302Z 21011KT 06/M01 A2989 RMK A01 T00631010  RH  060%=      5-min Rain = 0
KWT1 140303Z 21010KT 06/M01 A2989 RMK A01 T00631010  RH  060%=      5-min Rain = 0
KWT1 140304Z 21010KT 06/M01 A2989 RMK A01 T00631010  RH  060%=      5-min Rain = 0
KWT1 140305Z 21010KT 06/M01 A2989 RMK A01 T00631010  RH  060%=      5-min Rain = 0
KWT1 140306Z 21010KT 06/M01 A2989 RMK A01 T00631010  RH  060%=      5-min Rain = 0
KWT1 140307Z 21011KT 06/M01 A2989 RMK A01 T00631010  RH  060%=      5-min Rain = 0
KWT1 140308Z 21010KT 06/M01 A2989 RMK A01 T00631010  RH  059%=      5-min Rain = 0
KWT1 140309Z 21010KT 06/M01 A2989 RMK A01 T00631010  RH  060%=      5-min Rain = 0
KWT1 140310Z 21011KT 06/M01 A2989 RMK A01 T00631010  RH  060%=      5-min Rain = 0
KWT1 140311Z 21011KT 06/M01 A2989 RMK A01 T00631010  RH  060%=      5-min Rain = 0
KWT1 140312Z 21010KT 06/M01 A2989 RMK A01 T00621010  RH  060%=      5-min Rain = 0
KWT1 140313Z 21010KT 06/M01 A2989 RMK A01 T00621010  RH  060%=      5-min Rain = 0
KWT1 140314Z 21010KT 06/M01 A2988 RMK A01 T00621010  RH  060%=      5-min Rain = 0
KWT1 140315Z 21010KT 06/M01 A2988 RMK A01 T00621010  RH  060%=      5-min Rain = 0
KWT1 140316Z 21010KT 06/M01 A2988 RMK A01 T00621010  RH  060%=      5-min Rain = 0
KWT1 140317Z 21011KT 06/M01 A2988 RMK A01 T00611010  RH  060%=      5-min Rain = 0
KWT1 140318Z 21011KT 06/M01 A2988 RMK A01 T00601010  RH  061%=      5-min Rain = 0
KWT1 140319Z 21011KT 06/M01 A2988 RMK A01 T00601010  RH  061%=      5-min Rain = 0
KWT1 140320Z 21010KT 06/M01 A2988 RMK A01 T00601009  RH  061%=      5-min Rain = 0
KWT1 140321Z 20010KT 06/M01 A2988 RMK A01 T00591010  RH  061%=      5-min Rain = 0
KWT1 140322Z 20010KT 06/M01 A2988 RMK A01 T00581010  RH  061%=      5-min Rain = 0
KWT1 140323Z 20010KT 06/M01 A2988 RMK A01 T00581010  RH  062%=      5-min Rain = 0
KWT1 140324Z 20010KT 06/M01 A2988 RMK A01 T00571010  RH  062%=      5-min Rain = 0
KWT1 140325Z 20010KT 06/M01 A2988 RMK A01 T00571009  RH  062%=      5-min Rain = 0
KWT1 140326Z 20010KT 06/M01 A2988 RMK A01 T00561010  RH  063%=      5-min Rain = 0
KWT1 140327Z 20010KT 06/M01 A2988 RMK A01 T00561009  RH  063%=      5-min Rain = 0
KWT1 140328Z 20010KT 06/M01 A2988 RMK A01 T00551009  RH  063%=      5-min Rain = 0
KWT1 140329Z 20010KT 05/M01 A2988 RMK A01 T00541009  RH  063%=      5-min Rain = 0
KWT1 140330Z 20010KT 05/M01 A2988 RMK A01 T00541009  RH  064%=      5-min Rain = 0
KWT1 140331Z 20010KT 05/M01 A2988 RMK A01 T00541009  RH  064%=      5-min Rain = 0
KWT1 140332Z 20010KT 05/M01 A2988 RMK A01 T00541009  RH  064%=      5-min Rain = 0
KWT1 140333Z 20010KT 05/M01 A2988 RMK A01 T00531009  RH  064%=      5-min Rain = 0
KWT1 140334Z 20010KT 05/M01 A2988 RMK A01 T00531009  RH  064%=      5-min Rain = 0
KWT1 140335Z 20009KT 05/M01 A2988 RMK A01 T00541009  RH  064%=      5-min Rain = 0
KWT1 140336Z 20009KT 05/M01 A2988 RMK A01 T00541009  RH  064%=      5-min Rain = 0
KWT1 140337Z 20009KT 05/M01 A2988 RMK A01 T00541009  RH  064%=      5-min Rain = 0
KWT1 140338Z 20010KT 05/M01 A2988 RMK A01 T00541009  RH  064%=      5-min Rain = 0
KWT1 140339Z 20009KT 05/M01 A2988 RMK A01 T00541010  RH  064%=      5-min Rain = 0
KWT1 140340Z 20010KT 05/M01 A2988 RMK A01 T00541010  RH  064%=      5-min Rain = 0
KWT1 140341Z 20010KT 05/M01 A2988 RMK A01 T00531010  RH  064%=      5-min Rain = 0
KWT1 140342Z 20010KT 05/M01 A2988 RMK A01 T00531010  RH  064%=      5-min Rain = 0
KWT1 140343Z 20009KT 05/M01 A2988 RMK A01 T00531010  RH  064%=      5-min Rain = 0
KWT1 140344Z 20009KT 05/M01 A2988 RMK A01 T00531010  RH  064%=      5-min Rain = 0
KWT1 140345Z 20009KT 05/M01 A2988 RMK A01 T00531010  RH  064%=      5-min Rain = 0
KWT1 140346Z 20010KT 05/M01 A2988 RMK A01 T00541010  RH  063%=      5-min Rain = 0
KWT1 140347Z 20009KT 05/M01 A2988 RMK A01 T00531010  RH  064%=      5-min Rain = 0
KWT1 140348Z 20009KT 05/M01 A2988 RMK A01 T00521011  RH  064%=      5-min Rain = 0
KWT1 140349Z 20010KT 05/M01 A2988 RMK A01 T00521010  RH  064%=      5-min Rain = 0
KWT1 140350Z 20010KT 05/M01 A2988 RMK A01 T00521010  RH  064%=      5-min Rain = 0
KWT1 140351Z 21010KT 05/M01 A2988 RMK A01 T00521010  RH  064%=      5-min Rain = 0
KWT1 140352Z 21010KT 05/M01 A2988 RMK A01 T00521010  RH  064%=      5-min Rain = 0
KWT1 140353Z 21010KT 05/M01 A2988 RMK A01 T00531010  RH  064%=      5-min Rain = 0
KWT1 140354Z 20010KT 05/M01 A2988 RMK A01 T00541009  RH  064%=      5-min Rain = 0
KWT1 140355Z 20010KT 05/M01 A2988 RMK A01 T00541009  RH  064%=      5-min Rain = 0
KWT1 140356Z 20010KT 05/M01 A2988 RMK A01 T00541009  RH  064%=      5-min Rain = 0
KWT1 140357Z 21010KT 05/M01 A2988 RMK A01 T00541010  RH  063%=      5-min Rain = 0
KWT1 140358Z 20010KT 05/M01 A2987 RMK A01 T00541009  RH  064%=      5-min Rain = 0
KWT1 140359Z 20010KT 05/M01 A2987 RMK A01 T00531009  RH  064%=      5-min Rain = 0
KWT1 140400Z 20010KT 05/M01 A2987 RMK A01 T00521010  RH  064%=      5-min Rain = 0
KWT1 140401Z 20010KT 05/M01 A2987 RMK A01 T00521009  RH  065%=      5-min Rain = 0
KWT1 140402Z 20010KT 05/M01 A2987 RMK A01 T00511010  RH  065%=      5-min Rain = 0
KWT1 140403Z 20009KT 05/M01 A2987 RMK A01 T00511009  RH  065%=      5-min Rain = 0
KWT1 140404Z 20010KT 05/M01 A2987 RMK A01 T00501010  RH  065%=      5-min Rain = 0
KWT1 140405Z 20010KT 05/M01 A2987 RMK A01 T00491010  RH  066%=      5-min Rain = 0
KWT1 140406Z 20010KT 05/M01 A2987 RMK A01 T00491009  RH  066%=      5-min Rain = 0
KWT1 140407Z 20010KT 05/M01 A2987 RMK A01 T00491009  RH  066%=      5-min Rain = 0
KWT1 140408Z 20010KT 05/M01 A2987 RMK A01 T00491009  RH  066%=      5-min Rain = 0
KWT1 140409Z 20010KT 05/M01 A2987 RMK A01 T00491009  RH  066%=      5-min Rain = 0
KWT1 140410Z 20010KT 05/M01 A2987 RMK A01 T00481010  RH  066%=      5-min Rain = 0
KWT1 140411Z 20010KT 05/M01 A2987 RMK A01 T00481010  RH  066%=      5-min Rain = 0
KWT1 140412Z 20010KT 05/M01 A2987 RMK A01 T00481010  RH  066%=      5-min Rain = 0
KWT1 140413Z 20010KT 05/M01 A2987 RMK A01 T00481010  RH  066%=      5-min Rain = 0
KWT1 140414Z 20010KT 05/M01 A2987 RMK A01 T00491010  RH  066%=      5-min Rain = 0
KWT1 140415Z 20010KT 05/M01 A2987 RMK A01 T00491009  RH  066%=      5-min Rain = 0
KWT1 140416Z 20010KT 05/M01 A2987 RMK A01 T00481009  RH  066%=      5-min Rain = 0
KWT1 140417Z 20010KT 05/M01 A2987 RMK A01 T00481010  RH  066%=      5-min Rain = 0
KWT1 140418Z 20010KT 05/M01 A2987 RMK A01 T00491009  RH  066%=      5-min Rain = 0
KWT1 140419Z 21010KT 05/M01 A2987 RMK A01 T00501009  RH  066%=      5-min Rain = 0
KWT1 140420Z 21010KT 05/M01 A2987 RMK A01 T00501009  RH  066%=      5-min Rain = 0
KWT1 140421Z 21008KT 05/M01 A2987 RMK A01 T00501009  RH  065%=      5-min Rain = 0
KWT1 140422Z 21008KT 05/M01 A2987 RMK A01 T00501009  RH  066%=      5-min Rain = 0
KWT1 140423Z 21009KT 05/M01 A2987 RMK A01 T00501009  RH  066%=      5-min Rain = 0
KWT1 140424Z 21009KT 05/M01 A2987 RMK A01 T00491009  RH  066%=      5-min Rain = 0
KWT1 140425Z 21010KT 05/M01 A2987 RMK A01 T00491008  RH  067%=      5-min Rain = 0
KWT1 140426Z 21010KT 05/M01 A2987 RMK A01 T00491008  RH  066%=      5-min Rain = 0
KWT1 140427Z 21010KT 05/M01 A2987 RMK A01 T00491008  RH  066%=      5-min Rain = 0
KWT1 140428Z 21010KT 05/M01 A2987 RMK A01 T00491009  RH  066%=      5-min Rain = 0
KWT1 140429Z 21010KT 05/M01 A2987 RMK A01 T00501009  RH  066%=      5-min Rain = 0
KWT1 140430Z 21010KT 05/M01 A2987 RMK A01 T00501010  RH  065%=      5-min Rain = 0
KWT1 140431Z 21010KT 05/M01 A2987 RMK A01 T00491009  RH  066%=      5-min Rain = 0
KWT1 140432Z 21010KT 05/M01 A2987 RMK A01 T00491009  RH  066%=      5-min Rain = 0
KWT1 140433Z 21011KT 05/M01 A2987 RMK A01 T00491009  RH  066%=      5-min Rain = 0
KWT1 140434Z 20010KT 05/M01 A2987 RMK A01 T00491009  RH  066%=      5-min Rain = 0
KWT1 140435Z 21010KT 05/M01 A2987 RMK A01 T00481009  RH  066%=      5-min Rain = 0
KWT1 140436Z 21011KT 05/M01 A2987 RMK A01 T00481009  RH  067%=      5-min Rain = 0
KWT1 140437Z 21011KT 05/M01 A2986 RMK A01 T00481010  RH  066%=      5-min Rain = 0
KWT1 140438Z 21011KT 05/M01 A2986 RMK A01 T00481010  RH  066%=      5-min Rain = 0
KWT1 140439Z 21010KT 05/M01 A2987 RMK A01 T00481009  RH  066%=      5-min Rain = 0
KWT1 140440Z 21011KT 05/M01 A2986 RMK A01 T00481009  RH  066%=      5-min Rain = 0
KWT1 140441Z 21011KT 05/M01 A2986 RMK A01 T00481010  RH  066%=      5-min Rain = 0
KWT1 140442Z 21011KT 05/M01 A2986 RMK A01 T00481010  RH  066%=      5-min Rain = 0
KWT1 140443Z 22011KT 05/M01 A2986 RMK A01 T00481010  RH  066%=      5-min Rain = 0
KWT1 140444Z 21011KT 05/M01 A2986 RMK A01 T00491010  RH  066%=      5-min Rain = 0
KWT1 140445Z 21010KT 05/M01 A2986 RMK A01 T00501010  RH  065%=      5-min Rain = 0
KWT1 140446Z 21011KT 05/M01 A2986 RMK A01 T00511011  RH  065%=      5-min Rain = 0
KWT1 140447Z 21011KT 05/M01 A2986 RMK A01 T00521011  RH  064%=      5-min Rain = 0
KWT1 140448Z 21011KT 05/M01 A2986 RMK A01 T00521011  RH  064%=      5-min Rain = 0
KWT1 140449Z 21011KT 05/M01 A2986 RMK A01 T00521011  RH  063%=      5-min Rain = 0
KWT1 140450Z 21011KT 05/M01 A2986 RMK A01 T00531011  RH  063%=      5-min Rain = 0
KWT1 140451Z 21011KT 05/M01 A2986 RMK A01 T00541011  RH  063%=      5-min Rain = 0
KWT1 140452Z 22011KT 06/M01 A2986 RMK A01 T00551011  RH  062%=      5-min Rain = 0
KWT1 140453Z 22011KT 06/M01 A2986 RMK A01 T00561012  RH  061%=      5-min Rain = 0
KWT1 140454Z 22010KT 06/M01 A2986 RMK A01 T00571012  RH  061%=      5-min Rain = 0
KWT1 140455Z 22011KT 06/M01 A2986 RMK A01 T00581012  RH  060%=      5-min Rain = 0
KWT1 140456Z 22010KT 06/M01 A2986 RMK A01 T00591013  RH  060%=      5-min Rain = 0
KWT1 140457Z 22010KT 06/M01 A2986 RMK A01 T00601013  RH  060%=      5-min Rain = 0
KWT1 140458Z 22009KT 06/M01 A2986 RMK A01 T00601013  RH  059%=      5-min Rain = 0
KWT1 140459Z 22009KT 06/M01 A2986 RMK A01 T00601013  RH  059%=      5-min Rain = 0
KWT1 140500Z 23009KT 06/M01 A2986 RMK A01 T00601014  RH  059%=      5-min Rain = 0
KWT1 140501Z 22009KT 06/M01 A2986 RMK A01 T00601014  RH  059%=      5-min Rain = 0
KWT1 140502Z 22008KT 06/M01 A2986 RMK A01 T00601014  RH  059%=      5-min Rain = 0
KWT1 140503Z 23008KT 06/M01 A2986 RMK A01 T00591014  RH  059%=      5-min Rain = 0
KWT1 140504Z 23008KT 06/M01 A2986 RMK A01 T00591014  RH  059%=      5-min Rain = 0
KWT1 140505Z 22008KT 06/M01 A2986 RMK A01 T00581014  RH  059%=      5-min Rain = 0
KWT1 140506Z 22008KT 06/M02 A2986 RMK A01 T00581015  RH  060%=      5-min Rain = 0
KWT1 140507Z 23008KT 06/M02 A2986 RMK A01 T00551015  RH  060%=      5-min Rain = 0
KWT1 140508Z 22008KT 05/M02 A2986 RMK A01 T00541015  RH  061%=      5-min Rain = 0
KWT1 140509Z 22008KT 05/M02 A2986 RMK A01 T00531015  RH  061%=      5-min Rain = 0
KWT1 140510Z 23009KT 05/M02 A2986 RMK A01 T00521015  RH  062%=      5-min Rain = 0
KWT1 140511Z 23008KT 05/M02 A2986 RMK A01 T00501015  RH  062%=      5-min Rain = 0
KWT1 140512Z 23008KT 05/M02 A2986 RMK A01 T00501015  RH  063%=      5-min Rain = 0
KWT1 140513Z 23008KT 05/M02 A2986 RMK A01 T00481016  RH  063%=      5-min Rain = 0
KWT1 140514Z 23008KT 05/M02 A2986 RMK A01 T00471016  RH  064%=      5-min Rain = 0
KWT1 140515Z 23008KT 05/M02 A2986 RMK A01 T00471015  RH  064%=      5-min Rain = 0
KWT1 140516Z 22008KT 05/M02 A2986 RMK A01 T00461015  RH  064%=      5-min Rain = 0
KWT1 140517Z 23009KT 05/M02 A2986 RMK A01 T00461015  RH  065%=      5-min Rain = 0
KWT1 140518Z 23009KT 05/M02 A2986 RMK A01 T00461015  RH  065%=      5-min Rain = 0
KWT1 140519Z 23010KT 05/M02 A2986 RMK A01 T00451015  RH  065%=      5-min Rain = 0
KWT1 140520Z 23010KT 05/M02 A2986 RMK A01 T00451015  RH  065%=      5-min Rain = 0
KWT1 140521Z 23010KT 05/M02 A2986 RMK A01 T00451015  RH  065%=      5-min Rain = 0
KWT1 140522Z 23010KT 05/M02 A2986 RMK A01 T00451015  RH  065%=      5-min Rain = 0
KWT1 140523Z 23011KT 04/M02 A2986 RMK A01 T00441015  RH  065%=      5-min Rain = 0
KWT1 140524Z 23011KT 05/M02 A2986 RMK A01 T00451015  RH  065%=      5-min Rain = 0
KWT1 140525Z 23011KT 05/M02 A2986 RMK A01 T00451015  RH  065%=      5-min Rain = 0
KWT1 140526Z 23011KT 05/M01 A2986 RMK A01 T00471014  RH  065%=      5-min Rain = 0
KWT1 140527Z 23011KT 05/M01 A2986 RMK A01 T00481014  RH  064%=      5-min Rain = 0
KWT1 140528Z 23011KT 05/M01 A2986 RMK A01 T00491014  RH  064%=      5-min Rain = 0
KWT1 140529Z 23011KT 05/M01 A2986 RMK A01 T00501014  RH  063%=      5-min Rain = 0
KWT1 140530Z 23011KT 05/M01 A2985 RMK A01 T00501014  RH  063%=      5-min Rain = 0
KWT1 140531Z 23012KT 05/M01 A2985 RMK A01 T00511014  RH  063%=      5-min Rain = 0
KWT1 140532Z 23011KT 05/M01 A2985 RMK A01 T00531013  RH  062%=      5-min Rain = 0
KWT1 140533Z 23011KT 05/M01 A2985 RMK A01 T00541013  RH  062%=      5-min Rain = 0
KWT1 140534Z 23012KT 06/M01 A2985 RMK A01 T00561013  RH  061%=      5-min Rain = 0
KWT1 140535Z 22011KT 06/M01 A2985 RMK A01 T00561014  RH  061%=      5-min Rain = 0
KWT1 140536Z 23011KT 06/M01 A2985 RMK A01 T00581014  RH  060%=      5-min Rain = 0
KWT1 140537Z 23011KT 06/M01 A2985 RMK A01 T00581014  RH  060%=      5-min Rain = 0
KWT1 140538Z 23011KT 06/M01 A2985 RMK A01 T00581014  RH  060%=      5-min Rain = 0
KWT1 140539Z 23011KT 06/M01 A2985 RMK A01 T00591014  RH  060%=      5-min Rain = 0
KWT1 140540Z 23011KT 06/M01 A2985 RMK A01 T00591014  RH  060%=      5-min Rain = 0
KWT1 140541Z 23009KT 06/M01 A2985 RMK A01 T00591014  RH  059%=      5-min Rain = 0
KWT1 140542Z 23010KT 06/M01 A2985 RMK A01 T00591014  RH  060%=      5-min Rain = 0
KWT1 140543Z 23010KT 06/M01 A2985 RMK A01 T00581014  RH  060%=      5-min Rain = 0
KWT1 140544Z 23010KT 06/M01 A2985 RMK A01 T00581014  RH  060%=      5-min Rain = 0
KWT1 140545Z 23010KT 06/M01 A2985 RMK A01 T00571014  RH  060%=      5-min Rain = 0
KWT1 140546Z 23010KT 06/M01 A2985 RMK A01 T00571014  RH  060%=      5-min Rain = 0
KWT1 140547Z 23010KT 06/M01 A2985 RMK A01 T00571014  RH  060%=      5-min Rain = 0
KWT1 140548Z 23010KT 06/M01 A2985 RMK A01 T00561014  RH  060%=      5-min Rain = 0
KWT1 140549Z 23010KT 06/M01 A2985 RMK A01 T00551014  RH  061%=      5-min Rain = 0
KWT1 140550Z 23011KT 05/M01 A2985 RMK A01 T00541014  RH  061%=      5-min Rain = 0
KWT1 140551Z 23011KT 05/M01 A2985 RMK A01 T00541014  RH  062%=      5-min Rain = 0
KWT1 140552Z 23011KT 05/M01 A2985 RMK A01 T00541014  RH  062%=      5-min Rain = 0
KWT1 140553Z 23011KT 05/M01 A2985 RMK A01 T00541014  RH  062%=      5-min Rain = 0
KWT1 140554Z 23011KT 05/M01 A2985 RMK A01 T00531014  RH  062%=      5-min Rain = 0
KWT1 140555Z 23011KT 05/M01 A2985 RMK A01 T00531014  RH  062%=      5-min Rain = 0
KWT1 140556Z 23011KT 05/M01 A2985 RMK A01 T00531014  RH  062%=      5-min Rain = 0
KWT1 140557Z 23011KT 05/M01 A2985 RMK A01 T00531014  RH  062%=      5-min Rain = 0
KWT1 140558Z 23011KT 05/M01 A2985 RMK A01 T00531014  RH  062%=      5-min Rain = 0
KWT1 140559Z 23011KT 05/M01 A2985 RMK A01 T00521014  RH  062%=      5-min Rain = 0

Page generated in 0.1595 seconds.